K4OBI Weather Reports


Display with metric or nautical units.
time (UTC)temp
F
wind
direction
speed
MPH
gust
MPH
rain 1hr
in
rain 24hr
in
rain mn
in
humidity
%
barometer
mb
20260510153332 78 58 2.0 8.0 0.00 0.00 0.00 46 1019.2
20260510153233 78 60 2.0 8.0 0.00 0.00 0.00 48 1019.3
20260510153125 78 61 2.0 8.0 0.00 0.00 0.00 49 1019.3
20260510153026 78 347 2.0 8.0 0.00 0.00 0.00 48 1019.2
20260510152927 78 13 2.0 8.0 0.00 0.00 0.00 47 1019.3
20260510152826 78 313 2.0 9.0 0.00 0.00 0.00 50 1019.2
20260510152727 78 127 2.0 9.0 0.00 0.00 0.00 50 1019.2
20260510152621 78 38 2.0 9.0 0.00 0.00 0.00 50 1019.3
20260510152522 78 252 2.0 9.0 0.00 0.00 0.00 49 1019.3
20260510152423 78 223 2.0 9.0 0.00 0.00 0.00 48 1019.2
20260510152324 78 48 2.0 9.0 0.00 0.00 0.00 49 1019.2
20260510152221 78 256 2.0 9.0 0.00 0.00 0.00 49 1019.2
20260510152122 78 42 2.0 9.0 0.00 0.00 0.00 50 1019.1
20260510152021 78 294 2.0 9.0 0.00 0.00 0.00 48 1019.2
20260510151921 78 337 1.0 9.0 0.00 0.00 0.00 49 1019.2
20260510151822 78 48 1.0 6.0 0.00 0.00 0.00 50 1019.2
20260510151722 78 61 1.0 6.0 0.00 0.00 0.00 52 1019.2
20260510151621 78 309 1.0 6.0 0.00 0.00 0.00 51 1019.1
20260510151523 78 295 1.0 6.0 0.00 0.00 0.00 51 1019.2
20260510151422 78 67 1.0 6.0 0.00 0.00 0.00 50 1019.2
20260510151323 78 74 1.0 5.0 0.00 0.00 0.00 53 1019.3
20260510151222 77 271 2.0 5.0 0.00 0.00 0.00 52 1019.3
20260510151121 77 51 2.0 5.0 0.00 0.00 0.00 51 1019.2
20260510151023 77 53 2.0 7.0 0.00 0.00 0.00 52 1019.2
20260510150943 77 53 2.0 7.0 0.00 0.00 0.00 52 1019.3
20260510150817 77 53 2.0 7.0 0.00 0.00 0.00 51 1019.3
20260510150716 77 20 2.0 7.0 0.00 0.00 0.00 51 1019.2
20260510150613 77 20 2.0 7.0 0.00 0.00 0.00 50 1019.2
20260510150514 77 48 2.0 7.0 0.00 0.00 0.00 52 1019.2
20260510150444 77 309 2.0 7.0 0.00 0.00 0.00 52 1019.2
20260510150307 77 33 2.0 7.0 0.00 0.00 0.00 51 1019.2
20260510150209 77 359 2.0 7.0 0.00 0.00 0.00 51 1019.1
20260510150110 78 62 1.0 7.0 0.00 0.00 0.00 51 1019.2
20260510150009 78 53 1.0 4.0 0.00 0.00 0.00 52 1019.1
20260510145905 78 79 1.0 4.0 0.00 0.00 0.00 52 1019.2
20260510145807 77 14 1.0 4.0 0.00 0.00 0.00 54 1019.2
20260510145705 77 13 1.0 4.0 0.00 0.00 0.00 50 1019.3
20260510145605 77 13 1.0 4.0 0.00 0.00 0.00 52 1019.2
20260510145503 77 214 1.0 4.0 0.00 0.00 0.00 52 1019.2
20260510145357 77 212 1.0 4.0 0.00 0.00 0.00 50 1019.2
20260510145257 77 272 1.0 5.0 0.00 0.00 0.00 51 1019.2
20260510145157 78 243 1.0 5.0 0.00 0.00 0.00 49 1019.3
20260510145055 77 319 1.0 5.0 0.00 0.00 0.00 51 1019.3
20260510144956 77 188 1.0 5.0 0.00 0.00 0.00 52 1019.2
20260510144926 77 344 1.0 5.0 0.00 0.00 0.00 53 1019.2
20260510144754 77 344 1.0 5.0 0.00 0.00 0.00 53 1019.3
20260510144653 77 342 1.0 5.0 0.00 0.00 0.00 51 1019.3
20260510144553 77 222 1.0 5.0 0.00 0.00 0.00 53 1019.3
20260510144450 77 5 1.0 5.0 0.00 0.00 0.00 51 1019.2
20260510144420 77 30 1.0 5.0 0.00 0.00 0.00 52 1019.2
20260510144245 76 245 1.0 4.0 0.00 0.00 0.00 52 1019.2
20260510144143 76 176 1.0 4.0 0.00 0.00 0.00 52 1019.1
20260510144044 76 129 1.0 4.0 0.00 0.00 0.00 54 1019.2
20260510143945 76 278 1.0 4.0 0.00 0.00 0.00 56 1019.1
20260510143840 76 75 1.0 4.0 0.00 0.00 0.00 54 1019.1
20260510143739 76 36 1.0 4.0 0.00 0.00 0.00 52 1019.2
20260510143639 76 27 0.0 4.0 0.00 0.00 0.00 54 1019.2
20260510143539 76 38 0.0 4.0 0.00 0.00 0.00 52 1019.2
20260510143438 76 35 1.0 5.0 0.00 0.00 0.00 55 1019.2
20260510143334 76 132 1.0 7.0 0.00 0.00 0.00 53 1019.2
20260510143232 76 132 1.0 7.0 0.00 0.00 0.00 53 1019.2
20260510143129 76 133 1.0 7.0 0.00 0.00 0.00 51 1019.2
20260510143031 76 93 1.0 7.0 0.00 0.00 0.00 52 1019.1
20260510142931 76 322 1.0 7.0 0.00 0.00 0.00 51 1019.2
20260510142823 76 320 1.0 7.0 0.00 0.00 0.00 53 1019.2
20260510142723 76 327 1.0 7.0 0.00 0.00 0.00 52 1019.2
20260510142623 76 32 1.0 7.0 0.00 0.00 0.00 50 1019.2
20260510142524 76 33 0.0 7.0 0.00 0.00 0.00 51 1019.2
20260510142425 76 47 0.0 7.0 0.00 0.00 0.00 54 1019.1
20260510142321 76 32 0.0 2.0 0.00 0.00 0.00 54 1019.3
20260510142219 76 16 0.0 2.0 0.00 0.00 0.00 52 1019.2
20260510142120 76 341 0.0 2.0 0.00 0.00 0.00 52 1019.4
20260510142019 76 16 1.0 3.0 0.00 0.00 0.00 54 1019.4
20260510141919 76 15 1.0 3.0 0.00 0.00 0.00 55 1019.3
20260510141815 75 13 1.0 3.0 0.00 0.00 0.00 56 1019.4
20260510141717 75 13 1.0 3.0 0.00 0.00 0.00 56 1019.3
20260510141616 75 13 1.0 3.0 0.00 0.00 0.00 55 1019.4
20260510141516 75 17 1.0 3.0 0.00 0.00 0.00 56 1019.3
20260510141415 75 254 1.0 3.0 0.00 0.00 0.00 53 1019.4
20260510141317 75 241 1.0 3.0 0.00 0.00 0.00 52 1019.3
20260510141214 75 256 1.0 3.0 0.00 0.00 0.00 52 1019.3
20260510141114 75 302 1.0 3.0 0.00 0.00 0.00 54 1019.3
20260510141011 74 349 1.0 3.0 0.00 0.00 0.00 53 1019.3
20260510140912 74 27 1.0 3.0 0.00 0.00 0.00 58 1019.3
20260510140809 74 29 1.0 3.0 0.00 0.00 0.00 55 1019.3
20260510140709 74 30 1.0 3.0 0.00 0.00 0.00 55 1019.3
20260510140607 74 27 1.0 3.0 0.00 0.00 0.00 54 1019.1
20260510140506 74 68 0.0 3.0 0.00 0.00 0.00 56 1019.2
20260510140407 74 270 0.0 3.0 0.00 0.00 0.00 53 1019.3
20260510140306 74 245 0.0 3.0 0.00 0.00 0.00 57 1019.2
20260510140207 74 38 0.0 3.0 0.00 0.00 0.00 55 1019.3
20260510140104 74 38 0.0 3.0 0.00 0.00 0.00 55 1019.2
20260510140004 74 0 0.0 4.0 0.00 0.00 0.00 56 1019.2
20260510135920 74 355 0.0 4.0 0.00 0.00 0.00 55 1019.2
20260510135904 74 355 1.0 4.0 0.00 0.00 0.00 58 1019.2
20260510135705 74 18 1.0 4.0 0.00 0.00 0.00 56 1019.3
20260510135603 73 18 1.0 4.0 0.00 0.00 0.00 57 1019.2
20260510135503 73 5 1.0 4.0 0.00 0.00 0.00 58 1019.2
20260510135405 73 5 1.0 4.0 0.00 0.00 0.00 58 1019.1
20260510135306 73 4 1.0 4.0 0.00 0.00 0.00 57 1019.2
20260510135205 73 7 1.0 4.0 0.00 0.00 0.00 56 1019.2
20260510135101 73 1 0.0 4.0 0.00 0.00 0.00 56 1019.3
20260510134958 73 208 0.0 3.0 0.00 0.00 0.00 57 1019.1
20260510134858 73 53 0.0 3.0 0.00 0.00 0.00 54 1019.1
20260510134757 73 314 0.0 2.0 0.00 0.00 0.00 56 1019.1
20260510134656 73 324 0.0 2.0 0.00 0.00 0.00 62 1019.2
20260510134555 73 267 0.0 2.0 0.00 0.00 0.00 58 1019.1
20260510134455 72 264 0.0 2.0 0.00 0.00 0.00 58 1019.1
20260510134357 72 355 0.0 2.0 0.00 0.00 0.00 59 1019.2
20260510134253 72 345 0.0 2.0 0.00 0.00 0.00 59 1019.1
20260510134153 72 317 0.0 2.0 0.00 0.00 0.00 62 1019.1
20260510134055 71 288 0.0 2.0 0.00 0.00 0.00 62 1019.1
20260510133953 71 345 0.0 2.0 0.00 0.00 0.00 63 1019.1
20260510133855 71 278 0.0 2.0 0.00 0.00 0.00 63 1019.1
20260510133752 71 278 1.0 4.0 0.00 0.00 0.00 63 1019.0
20260510133652 71 228 1.0 4.0 0.00 0.00 0.00 64 1019.1
20260510133552 70 230 1.0 4.0 0.00 0.00 0.00 64 1019.0
20260510133453 70 230 1.0 4.0 0.00 0.00 0.00 63 1019.0
20260510133348 70 316 1.0 4.0 0.00 0.00 0.00 64 1019.0
20260510133248 70 271 0.0 4.0 0.00 0.00 0.00 63 1019.0
20260510133148 70 264 0.0 4.0 0.00 0.00 0.00 67 1019.1
20260510133048 70 352 0.0 4.0 0.00 0.00 0.00 68 1019.1
20260510132949 70 45 0.0 4.0 0.00 0.00 0.00 65 1019.1
20260510132847 70 46 0.0 4.0 0.00 0.00 0.00 70 1019.0
20260510132748 70 60 0.0 1.0 0.00 0.00 0.00 70 1019.0
20260510132648 69 61 0.0 1.0 0.00 0.00 0.00 72 1019.0
20260510132549 69 60 0.0 1.0 0.00 0.00 0.00 70 1019.0
20260510132448 69 60 0.0 1.0 0.00 0.00 0.00 70 1019.0
20260510132348 69 61 0.0 1.0 0.00 0.00 0.00 71 1019.0
20260510132248 68 357 0.0 1.0 0.00 0.00 0.00 72 1019.0
20260510132147 68 357 0.0 1.0 0.00 0.00 0.00 75 1019.1
20260510132048 68 1 0.0 1.0 0.00 0.00 0.00 78 1019.0
20260510131947 68 1 0.0 1.0 0.00 0.00 0.00 75 1019.0
20260510131847 67 1 0.0 1.0 0.00 0.00 0.00 76 1019.0
20260510131749 67 1 0.0 1.0 0.00 0.00 0.00 78 1019.0
20260510131650 67 1 0.0 1.0 0.00 0.00 0.00 76 1019.1
20260510131549 67 1 0.0 1.0 0.00 0.00 0.00 77 1019.1
20260510131445 67 1 0.0 1.0 0.00 0.00 0.00 79 1019.0
20260510131343 67 359 0.0 0.0 0.00 0.00 0.00 81 1018.9
20260510131243 67 315 0.0 0.0 0.00 0.00 0.00 84 1019.0
20260510131143 66 315 0.0 0.0 0.00 0.00 0.00 85 1019.0
20260510131045 66 315 0.0 0.0 0.00 0.00 0.00 85 1019.1
20260510130945 66 315 0.0 1.0 0.00 0.00 0.00 85 1019.0
20260510130844 65 315 0.0 1.0 0.00 0.00 0.00 86 1019.0
20260510130744 65 315 0.0 1.0 0.00 0.00 0.00 84 1019.0
20260510130645 64 315 0.0 1.0 0.00 0.00 0.00 85 1019.0
20260510130543 64 315 0.0 1.0 0.00 0.00 0.00 82 1018.9
20260510130445 64 315 0.0 1.0 0.00 0.00 0.00 81 1018.9
20260510130343 63 315 0.0 1.0 0.00 0.00 0.00 83 1018.9
20260510130244 63 315 0.0 1.0 0.00 0.00 0.00 86 1018.9
20260510130144 63 315 0.0 1.0 0.00 0.00 0.00 86 1018.9
20260510130043 63 315 0.0 1.0 0.00 0.00 0.00 88 1018.9
20260510125943 62 299 0.0 1.0 0.00 0.00 0.00 86 1019.0
20260510125843 62 299 0.0 1.0 0.00 0.00 0.00 88 1018.9
20260510125743 62 299 0.0 1.0 0.00 0.00 0.00 87 1019.0
20260510125646 62 299 0.0 1.0 0.00 0.00 0.00 86 1019.0
20260510125539 61 298 0.0 1.0 0.00 0.00 0.00 89 1019.0
20260510125440 61 296 0.0 1.0 0.00 0.00 0.00 88 1019.0
20260510125404 61 11 0.0 1.0 0.00 0.00 0.00 90 1018.9
20260510125241 60 12 0.0 0.0 0.00 0.00 0.00 93 1019.0
20260510125140 60 12 0.0 0.0 0.00 0.00 0.00 93 1019.0
20260510125039 60 12 0.0 0.0 0.00 0.00 0.00 92 1019.0
20260510124940 60 12 0.0 0.0 0.00 0.00 0.00 93 1019.0
20260510124840 59 12 0.0 0.0 0.00 0.00 0.00 92 1019.0
20260510124740 59 12 0.0 1.0 0.00 0.00 0.00 92 1019.0
20260510124642 59 12 0.0 1.0 0.00 0.00 0.00 92 1019.0
20260510124539 59 12 0.0 1.0 0.00 0.00 0.00 93 1018.9
20260510124439 58 12 0.0 1.0 0.00 0.00 0.00 94 1018.9
20260510124339 58 12 0.0 1.0 0.00 0.00 0.00 93 1018.9
20260510124239 58 12 0.0 1.0 0.00 0.00 0.00 94 1018.9
20260510124139 58 12 0.0 1.0 0.00 0.00 0.00 95 1018.8
20260510124039 57 12 0.0 1.0 0.00 0.00 0.00 95 1019.0
20260510123941 57 12 0.0 1.0 0.00 0.00 0.00 96 1018.9
20260510123839 57 12 0.0 1.0 0.00 0.00 0.00 96 1018.9
20260510123742 57 12 0.0 1.0 0.00 0.00 0.00 97 1018.9
20260510123635 57 358 0.0 0.0 0.00 0.00 0.00 97 1018.9
20260510123536 57 358 0.0 0.0 0.00 0.00 0.00 97 1019.0
20260510123437 56 358 0.0 0.0 0.00 0.00 0.00 97 1018.8
20260510123403 56 358 0.0 0.0 0.00 0.00 0.00 98 1018.8
20260510123237 56 358 0.0 0.0 0.00 0.00 0.00 98 1018.7
20260510123135 56 358 0.0 0.0 0.00 0.00 0.00 98 1018.8
20260510123037 56 358 0.0 0.0 0.00 0.00 0.00 98 1018.8
20260510122935 56 358 0.0 0.0 0.00 0.00 0.00 98 1018.8
20260510122836 56 358 0.0 0.0 0.00 0.00 0.00 98 1018.8
20260510122736 56 358 0.0 0.0 0.00 0.00 0.00 99 1018.8
20260510122636 56 358 0.0 0.0 0.00 0.00 0.00 99 1018.8
20260510122537 56 358 0.0 0.0 0.00 0.00 0.00 99 1018.7
20260510122435 56 358 0.0 0.0 0.00 0.00 0.00 99 1018.7
20260510122337 56 358 0.0 0.0 0.00 0.00 0.00 99 1018.8
20260510122235 56 358 0.0 0.0 0.00 0.00 0.00 99 1018.8
20260510122137 56 358 0.0 0.0 0.00 0.00 0.00 99 1018.7
20260510122036 56 358 0.0 0.0 0.00 0.00 0.00 99 1018.8
20260510121935 56 358 0.0 0.0 0.00 0.00 0.00 99 1018.7
20260510121836 56 358 0.0 0.0 0.00 0.00 0.00 99 1018.7
20260510121731 56 358 0.0 0.0 0.00 0.00 0.00 99 1018.6
20260510121632 56 358 0.0 0.0 0.00 0.00 0.00 99 1018.7
20260510121531 56 358 0.0 0.0 0.00 0.00 0.00 99 1018.5
20260510121432 55 358 0.0 0.0 0.00 0.00 0.00 99 1018.6
20260510121333 55 358 0.0 0.0 0.00 0.00 0.00 99 1018.5
20260510121231 55 358 0.0 0.0 0.00 0.00 0.00 99 1018.5
20260510121132 55 358 0.0 0.0 0.00 0.00 0.00 99 1018.5
20260510121032 55 358 0.0 0.0 0.00 0.00 0.00 99 1018.4
20260510120931 55 358 0.0 0.0 0.00 0.00 0.00 99 1018.4
20260510120833 55 358 0.0 0.0 0.00 0.00 0.00 99 1018.4
20260510120731 55 358 0.0 0.0 0.00 0.00 0.00 99 1018.4
20260510120640 55 358 0.0 0.0 0.00 0.00 0.00 99 1018.4
20260510120624 55 358 0.0 0.0 0.00 0.00 0.00 99 1018.3
20260510120433 55 358 0.0 0.0 0.00 0.00 0.00 99 1018.3
20260510120402 55 358 0.0 0.0 0.00 0.00 0.00 99 1018.4
20260510120231 54 358 0.0 0.0 0.00 0.00 0.00 99 1018.3
20260510120133 54 358 0.0 0.0 0.00 0.00 0.00 99 1018.2
20260510120031 54 358 0.0 0.0 0.00 0.00 0.00 98 1018.2
20260510115933 54 358 0.0 0.0 0.00 0.00 0.00 98 1018.2
20260510115901 54 358 0.0 0.0 0.00 0.00 0.00 98 1018.2
20260510115730 54 358 0.0 0.0 0.00 0.00 0.00 98 1018.1
20260510115629 54 358 0.0 0.0 0.00 0.00 0.00 98 1018.1
20260510115611 54 358 0.0 0.0 0.00 0.00 0.00 98 1018.1
20260510115425 54 358 0.0 0.0 0.00 0.00 0.00 98 1018.1
20260510115355 54 358 0.0 0.0 0.00 0.00 0.00 99 1018.1
20260510115221 54 358 0.0 0.0 0.00 0.00 0.00 99 1018.0
20260510115120 54 358 0.0 0.0 0.00 0.00 0.00 98 1017.9
20260510115020 54 358 0.0 0.0 0.00 0.00 0.00 99 1017.9
20260510114920 54 358 0.0 0.0 0.00 0.00 0.00 99 1017.9
20260510114817 54 358 0.0 0.0 0.00 0.00 0.00 99 1017.9
20260510114718 54 358 0.0 0.0 0.00 0.00 0.00 98 1017.9
20260510114617 53 358 0.0 0.0 0.00 0.00 0.00 98 1017.9
20260510114515 53 358 0.0 0.0 0.00 0.00 0.00 98 1017.9
20260510114436 53 358 0.0 0.0 0.00 0.00 0.00 98 1017.8
20260510114428 53 358 0.0 0.0 0.00 0.00 0.00 98 1017.9
20260510114211 53 358 0.0 0.0 0.00 0.00 0.00 98 1017.8
20260510114112 53 358 0.0 0.0 0.00 0.00 0.00 98 1017.8
20260510114009 53 358 0.0 0.0 0.00 0.00 0.00 98 1017.8
20260510113907 53 358 0.0 0.0 0.00 0.00 0.00 98 1017.7
20260510113808 53 358 0.0 0.0 0.00 0.00 0.00 98 1017.8
20260510113705 53 358 0.0 0.0 0.00 0.00 0.00 98 1017.7
20260510113605 53 358 0.0 0.0 0.00 0.00 0.00 98 1017.6
20260510113504 53 358 0.0 0.0 0.00 0.00 0.00 98 1017.6
20260510113401 53 358 0.0 0.0 0.00 0.00 0.00 98 1017.6
20260510113303 53 358 0.0 0.0 0.00 0.00 0.00 98 1017.6
20260510113200 53 358 0.0 0.0 0.00 0.00 0.00 98 1017.6
20260510113100 53 358 0.0 0.0 0.00 0.00 0.00 98 1017.6
20260510112958 53 358 0.0 0.0 0.00 0.00 0.00 98 1017.6
20260510112856 53 358 0.0 0.0 0.00 0.00 0.00 98 1017.7
20260510112751 53 358 0.0 0.0 0.00 0.00 0.00 98 1017.6
20260510112651 53 358 0.0 0.0 0.00 0.00 0.00 98 1017.5
20260510112549 53 358 0.0 0.0 0.00 0.00 0.00 98 1017.5
20260510112450 53 358 0.0 0.0 0.00 0.00 0.00 98 1017.5
20260510112350 52 358 0.0 0.0 0.00 0.00 0.00 98 1017.5
20260510112250 52 358 0.0 0.0 0.00 0.00 0.00 98 1017.6
20260510112148 52 358 0.0 0.0 0.00 0.00 0.00 98 1017.5
20260510112048 52 358 0.0 0.0 0.00 0.00 0.00 98 1017.5
20260510111946 52 358 0.0 0.0 0.00 0.00 0.00 98 1017.5
20260510111843 52 358 0.0 0.0 0.00 0.00 0.00 98 1017.4
20260510111815 52 358 0.0 0.0 0.00 0.00 0.00 98 1017.4
20260510111642 52 358 0.0 0.0 0.00 0.00 0.00 98 1017.4
20260510111543 52 358 0.0 0.0 0.00 0.00 0.00 98 1017.4
20260510111439 52 358 0.0 0.0 0.00 0.00 0.00 98 1017.3
20260510111337 52 358 0.0 0.0 0.00 0.00 0.00 98 1017.3
20260510111238 52 358 0.0 0.0 0.00 0.00 0.00 98 1017.3
20260510111135 52 358 0.0 0.0 0.00 0.00 0.00 98 1017.3
20260510111039 52 358 0.0 0.0 0.00 0.00 0.00 98 1017.3
20260510110933 52 358 0.0 0.0 0.00 0.00 0.00 98 1017.3
20260510110831 52 358 0.0 0.0 0.00 0.00 0.00 98 1017.2
20260510110725 52 358 0.0 0.0 0.00 0.00 0.00 98 1017.3
20260510110626 52 358 0.0 0.0 0.00 0.00 0.00 97 1017.0
20260510110525 52 358 0.0 0.0 0.00 0.00 0.00 97 1017.2
20260510110426 52 358 0.0 0.0 0.00 0.00 0.00 97 1017.3
20260510110326 52 358 0.0 0.0 0.00 0.00 0.00 97 1017.0
20260510110219 52 358 0.0 0.0 0.00 0.00 0.00 97 1017.2
20260510110120 52 358 0.0 0.0 0.00 0.00 0.00 97 1017.2
20260510110019 52 358 0.0 0.0 0.00 0.00 0.00 97 1017.2
20260510105919 52 358 0.0 0.0 0.00 0.00 0.00 97 1017.2
20260510105820 52 358 0.0 0.0 0.00 0.00 0.00 97 1017.2
20260510105716 52 358 0.0 0.0 0.00 0.00 0.00 97 1017.2
20260510105615 52 358 0.0 0.0 0.00 0.00 0.00 97 1017.2
20260510105516 52 358 0.0 0.0 0.00 0.00 0.00 97 1017.2
20260510105415 52 358 0.0 0.0 0.00 0.00 0.00 97 1017.2
20260510105313 52 358 0.0 0.0 0.00 0.00 0.00 97 1017.2
20260510105214 52 358 0.0 0.0 0.00 0.00 0.00 97 1017.2
20260510105112 53 358 0.0 0.0 0.00 0.00 0.00 97 1017.2
20260510105013 53 358 0.0 0.0 0.00 0.00 0.00 97 1017.2
20260510104910 53 358 0.0 0.0 0.00 0.00 0.00 97 1017.2
20260510104807 53 358 0.0 0.0 0.00 0.00 0.00 97 1017.2
20260510104708 53 358 0.0 0.0 0.00 0.00 0.00 97 1017.2
20260510104605 53 358 0.0 0.0 0.00 0.00 0.00 97 1017.0
20260510104507 53 358 0.0 1.0 0.00 0.00 0.00 97 1017.2
20260510104404 53 358 0.0 1.0 0.00 0.00 0.00 97 1017.2
20260510104302 53 358 0.0 1.0 0.00 0.00 0.00 97 1017.2
20260510104200 53 358 0.0 1.0 0.00 0.00 0.00 97 1017.0
20260510104059 53 358 0.0 1.0 0.00 0.00 0.00 97 1016.9
20260510103958 53 358 0.0 1.0 0.00 0.00 0.00 97 1016.9
20260510103858 53 358 0.0 1.0 0.00 0.00 0.00 97 1016.9
20260510103756 53 358 0.0 1.0 0.00 0.00 0.00 97 1016.8
20260510103657 53 358 0.0 1.0 0.00 0.00 0.00 97 1016.7
20260510103553 53 358 0.0 1.0 0.00 0.00 0.00 97 1016.8
20260510103453 53 358 0.0 0.0 0.00 0.00 0.00 97 1016.8
20260510103352 53 358 0.0 0.0 0.00 0.00 0.00 97 1016.7
20260510103250 53 358 0.0 0.0 0.00 0.00 0.00 97 1016.7
20260510103150 53 358 0.0 0.0 0.00 0.00 0.00 97 1016.7
20260510103047 53 358 0.0 0.0 0.00 0.00 0.00 97 1016.6
20260510102947 53 358 0.0 0.0 0.00 0.00 0.00 97 1016.7
20260510102846 53 358 0.0 0.0 0.00 0.00 0.00 97 1016.7
20260510102744 53 358 0.0 0.0 0.00 0.00 0.00 97 1016.6
20260510102642 53 358 0.0 0.0 0.00 0.00 0.00 97 1016.7
20260510102542 53 358 0.0 0.0 0.00 0.00 0.00 97 1016.6
20260510102441 53 358 0.0 0.0 0.00 0.00 0.00 97 1016.6
20260510102340 53 358 0.0 0.0 0.00 0.00 0.00 97 1016.7
20260510102238 53 358 0.0 0.0 0.00 0.00 0.00 97 1016.6
20260510102206 53 358 0.0 0.0 0.00 0.00 0.00 97 1016.6
20260510102037 53 358 0.0 0.0 0.00 0.00 0.00 97 1016.6
20260510101935 53 358 0.0 0.0 0.00 0.00 0.00 97 1016.6
20260510101834 53 358 0.0 0.0 0.00 0.00 0.00 97 1016.6
20260510101732 53 358 0.0 0.0 0.00 0.00 0.00 97 1016.5
20260510101703 53 358 0.0 0.0 0.00 0.00 0.00 97 1016.5
20260510101529 54 358 0.0 0.0 0.00 0.00 0.00 97 1016.6
20260510101429 54 358 0.0 0.0 0.00 0.00 0.00 97 1016.6
20260510101328 54 358 0.0 0.0 0.00 0.00 0.00 97 1016.6
20260510101226 54 358 0.0 0.0 0.00 0.00 0.00 97 1016.5
20260510101121 54 358 0.0 0.0 0.00 0.00 0.00 97 1016.4
20260510101021 54 358 0.0 0.0 0.00 0.00 0.00 97 1016.6
20260510100922 54 358 0.0 0.0 0.00 0.00 0.00 97 1016.6
20260510100823 54 358 0.0 0.0 0.00 0.00 0.00 97 1016.5
20260510100719 54 358 0.0 0.0 0.00 0.00 0.00 97 1016.5
20260510100619 54 358 0.0 0.0 0.00 0.00 0.00 97 1016.5
20260510100519 54 358 0.0 0.0 0.00 0.00 0.00 97 1016.6
20260510100418 54 358 0.0 0.0 0.00 0.00 0.00 97 1016.6
20260510100315 54 358 0.0 0.0 0.00 0.00 0.00 97 1016.5
20260510100214 54 358 0.0 0.0 0.00 0.00 0.00 97 1016.5
20260510100114 54 358 0.0 0.0 0.00 0.00 0.00 97 1016.5
20260510100011 54 358 0.0 0.0 0.00 0.00 0.00 97 1016.5
20260510095912 54 358 0.0 0.0 0.00 0.00 0.00 97 1016.5
20260510095809 54 358 0.0 0.0 0.00 0.00 0.00 97 1016.4
20260510095708 54 358 0.0 0.0 0.00 0.00 0.00 97 1016.4
20260510095607 54 358 0.0 0.0 0.00 0.00 0.00 97 1016.5
20260510095505 54 358 0.0 0.0 0.00 0.00 0.00 97 1016.4
20260510095406 54 358 0.0 0.0 0.00 0.00 0.00 97 1016.3
20260510095305 54 358 0.0 0.0 0.00 0.00 0.00 97 1016.3
20260510095202 54 358 0.0 0.0 0.00 0.00 0.00 97 1016.3
20260510095131 54 358 0.0 0.0 0.00 0.00 0.00 97 1016.3
20260510095001 54 358 0.0 0.0 0.00 0.00 0.00 97 1016.3
20260510094901 54 358 0.0 0.0 0.00 0.00 0.00 97 1016.3
20260510094759 54 358 0.0 0.0 0.00 0.00 0.00 97 1016.3
20260510094656 54 358 0.0 0.0 0.00 0.00 0.00 97 1016.2
20260510094556 54 0 0.0 0.0 0.00 0.00 0.00 97 1016.3
20260510094453 54 0 0.0 0.0 0.00 0.00 0.00 97 1016.3
20260510094354 54 0 0.0 0.0 0.00 0.00 0.00 97 1016.2
20260510094252 54 0 0.0 0.0 0.00 0.00 0.00 97 1016.2
20260510094150 54 0 0.0 0.0 0.00 0.00 0.00 97 1016.3
20260510094050 54 0 0.0 0.0 0.00 0.00 0.00 97 1016.2
20260510093947 54 0 0.0 2.0 0.00 0.00 0.00 97 1016.3
20260510093848 54 0 0.0 2.0 0.00 0.00 0.00 96 1016.3
20260510093745 54 0 0.0 2.0 0.00 0.00 0.00 96 1016.2
20260510093644 54 0 0.0 2.0 0.00 0.00 0.00 96 1016.2
20260510093544 54 0 0.0 2.0 0.00 0.00 0.00 96 1016.2
20260510093441 54 0 0.0 2.0 0.00 0.00 0.00 96 1016.3
20260510093343 54 0 0.0 2.0 0.00 0.00 0.00 96 1016.2
20260510093239 54 0 0.0 2.0 0.00 0.00 0.00 96 1016.2
20260510093138 55 0 0.0 2.0 0.00 0.00 0.00 96 1016.2
20260510093036 54 0 0.0 2.0 0.00 0.00 0.00 96 1016.3
20260510092935 55 318 0.0 0.0 0.00 0.00 0.00 96 1016.2
20260510092835 55 318 0.0 0.0 0.00 0.00 0.00 96 1016.1
20260510092733 55 318 0.0 0.0 0.00 0.00 0.00 96 1016.2
20260510092633 55 318 0.0 0.0 0.00 0.00 0.00 96 1016.2
20260510092600 55 318 0.0 0.0 0.00 0.00 0.00 96 1016.2
20260510092426 55 318 0.0 0.0 0.00 0.00 0.00 96 1016.2
20260510092326 55 318 0.0 0.0 0.00 0.00 0.00 95 1016.2
20260510092226 55 318 0.0 0.0 0.00 0.00 0.00 95 1016.1
20260510092125 55 318 0.0 0.0 0.00 0.00 0.00 96 1016.2
20260510092019 55 318 0.0 1.0 0.00 0.00 0.00 96 1016.1
20260510091919 55 318 0.0 1.0 0.00 0.00 0.00 96 1016.1
20260510091819 55 318 0.0 1.0 0.00 0.00 0.00 96 1016.1
20260510091620 55 318 0.0 1.0 0.00 0.00 0.00 96 1016.1
20260510091513 55 318 0.0 1.0 0.00 0.00 0.00 96 1016.1
20260510091414 55 318 0.0 1.0 0.00 0.00 0.00 96 1016.2
20260510091313 55 318 0.0 1.0 0.00 0.00 0.00 96 1016.1
20260510091213 55 317 0.0 1.0 0.00 0.00 0.00 96 1016.1
20260510091114 55 318 0.0 1.0 0.00 0.00 0.00 96 1016.1
20260510091014 55 300 0.0 1.0 0.00 0.00 0.00 95 1016.1
20260510090911 55 299 0.0 1.0 0.00 0.00 0.00 95 1016.0
20260510090812 55 299 0.0 1.0 0.00 0.00 0.00 95 1016.1
20260510090710 55 299 0.0 1.0 0.00 0.00 0.00 95 1016.1
20260510090608 55 299 0.0 0.0 0.00 0.00 0.00 95 1016.0
20260510090508 55 299 0.0 0.0 0.00 0.00 0.00 95 1016.1
20260510090405 55 299 0.0 0.0 0.00 0.00 0.00 95 1016.1
20260510090306 55 299 0.0 0.0 0.00 0.00 0.00 95 1016.0
20260510090204 55 299 0.0 0.0 0.00 0.00 0.00 95 1016.2
20260510090002 55 299 0.0 0.0 0.00 0.00 0.00 95 1016.1
20260510085859 55 299 0.0 0.0 0.00 0.00 0.00 94 1016.1
20260510085759 55 299 0.0 0.0 0.00 0.00 0.00 94 1016.1
20260510085658 55 299 0.0 0.0 0.00 0.00 0.00 95 1016.1
20260510085556 55 299 0.0 0.0 0.00 0.00 0.00 95 1016.0
20260510085528 55 299 0.0 0.0 0.00 0.00 0.00 95 1016.1
20260510085352 56 299 0.0 0.0 0.00 0.00 0.00 95 1016.1
20260510085254 56 299 0.0 0.0 0.00 0.00 0.00 95 1016.0
20260510085152 56 299 0.0 0.0 0.00 0.00 0.00 94 1016.1
20260510085050 56 299 0.0 0.0 0.00 0.00 0.00 94 1016.1
20260510084943 56 300 0.0 0.0 0.00 0.00 0.00 94 1016.0
20260510084845 56 299 0.0 0.0 0.00 0.00 0.00 94 1016.1
20260510084742 56 299 0.0 0.0 0.00 0.00 0.00 94 1016.1
20260510084644 56 300 0.0 0.0 0.00 0.00 0.00 94 1016.1
20260510084543 56 299 0.0 0.0 0.00 0.00 0.00 94 1016.0
20260510084439 56 299 0.0 0.0 0.00 0.00 0.00 94 1016.0
20260510084340 56 299 0.0 0.0 0.00 0.00 0.00 93 1016.0
20260510084241 56 299 0.0 0.0 0.00 0.00 0.00 93 1016.0
20260510084140 56 299 0.0 0.0 0.00 0.00 0.00 93 1016.0
20260510084038 56 299 0.0 0.0 0.00 0.00 0.00 93 1015.9
20260510083936 56 300 0.0 0.0 0.00 0.00 0.00 93 1016.0
20260510083835 56 299 0.0 0.0 0.00 0.00 0.00 93 1016.0
20260510083735 56 299 0.0 0.0 0.00 0.00 0.00 93 1016.0
20260510083634 56 299 0.0 1.0 0.00 0.00 0.00 93 1015.9
20260510083532 56 299 0.0 1.0 0.00 0.00 0.00 93 1015.9
20260510083424 56 299 0.0 1.0 0.00 0.00 0.00 93 1015.9
20260510083326 56 299 0.0 1.0 0.00 0.00 0.00 93 1015.8
20260510083226 56 299 0.0 1.0 0.00 0.00 0.00 93 1015.8
20260510083127 57 299 0.0 1.0 0.00 0.00 0.00 93 1015.8
20260510083025 57 299 0.0 1.0 0.00 0.00 0.00 93 1015.8
20260510082921 57 299 0.0 1.0 0.00 0.00 0.00 93 1015.8
20260510082821 57 299 0.0 1.0 0.00 0.00 0.00 92 1015.8
20260510082723 57 299 0.0 1.0 0.00 0.00 0.00 92 1015.8
20260510082622 57 299 0.0 1.0 0.00 0.00 0.00 93 1015.7
20260510082520 57 299 0.0 1.0 0.00 0.00 0.00 93 1015.7
20260510082450 57 299 0.0 1.0 0.00 0.00 0.00 93 1015.7
20260510082313 57 299 0.0 0.0 0.00 0.00 0.00 93 1015.6
20260510082212 57 299 0.0 0.0 0.00 0.00 0.00 93 1015.6
20260510082113 57 299 0.0 0.0 0.00 0.00 0.00 92 1015.6
20260510082013 57 299 0.0 0.0 0.00 0.00 0.00 92 1015.6
20260510081911 57 300 0.0 0.0 0.00 0.00 0.00 92 1015.7
20260510081810 57 299 0.0 0.0 0.00 0.00 0.00 91 1015.6
20260510081711 57 299 0.0 0.0 0.00 0.00 0.00 91 1015.7
20260510081610 57 299 0.0 0.0 0.00 0.00 0.00 91 1015.6
20260510081507 57 299 0.0 0.0 0.00 0.00 0.00 91 1015.7
20260510081403 58 299 0.0 0.0 0.00 0.00 0.00 91 1015.6
20260510081304 58 299 0.0 0.0 0.00 0.00 0.00 91 1015.6
20260510081204 58 299 0.0 0.0 0.00 0.00 0.00 91 1015.5
20260510081104 58 299 0.0 0.0 0.00 0.00 0.00 91 1015.6
20260510081002 58 299 0.0 0.0 0.00 0.00 0.00 91 1015.5
20260510080854 58 300 0.0 1.0 0.00 0.00 0.00 91 1015.6
20260510080756 58 299 0.0 1.0 0.00 0.00 0.00 91 1015.5
20260510080656 58 299 0.0 1.0 0.00 0.00 0.00 91 1015.5
20260510080556 58 299 0.0 1.0 0.00 0.00 0.00 91 1015.5
20260510080456 58 299 0.0 1.0 0.00 0.00 0.00 90 1015.4
20260510080425 58 300 0.0 1.0 0.00 0.00 0.00 90 1015.4
20260510080253 58 299 0.0 2.0 0.00 0.00 0.00 91 1015.4
20260510080210 58 299 0.0 2.0 0.00 0.00 0.00 90 1015.4
20260510080202 58 299 0.0 2.0 0.00 0.00 0.00 90 1015.4
20260510075949 58 299 0.0 2.0 0.00 0.00 0.00 90 1015.4
20260510075845 58 299 0.0 2.0 0.00 0.00 0.00 90 1015.5
20260510075745 58 299 0.0 2.0 0.00 0.00 0.00 90 1015.4
20260510075646 58 335 0.0 2.0 0.00 0.00 0.00 91 1015.4
20260510075546 58 21 0.0 2.0 0.00 0.00 0.00 91 1015.5
20260510075444 58 20 0.0 2.0 0.00 0.00 0.00 92 1015.5
20260510075342 58 21 0.0 2.0 0.00 0.00 0.00 92 1015.5
20260510075241 58 271 0.0 1.0 0.00 0.00 0.00 91 1015.3
20260510075142 58 271 0.0 1.0 0.00 0.00 0.00 92 1015.4
20260510075040 58 279 0.0 1.0 0.00 0.00 0.00 93 1015.4
20260510074938 58 279 0.0 1.0 0.00 0.00 0.00 93 1015.3
20260510074836 58 279 0.0 1.0 0.00 0.00 0.00 94 1015.4
20260510074734 58 279 0.0 1.0 0.00 0.00 0.00 94 1015.4
20260510074635 57 279 0.0 1.0 0.00 0.00 0.00 96 1015.3
20260510074534 57 280 0.0 1.0 0.00 0.00 0.00 96 1015.4
20260510074431 57 281 0.0 1.0 0.00 0.00 0.00 96 1015.4
20260510074325 57 281 0.0 1.0 0.00 0.00 0.00 97 1015.4
20260510074226 57 281 0.0 1.0 0.00 0.00 0.00 97 1015.3
20260510074124 57 257 0.0 1.0 0.00 0.00 0.00 97 1015.4
20260510074026 57 258 0.0 1.0 0.00 0.00 0.00 97 1015.3
20260510073926 57 188 0.0 0.0 0.00 0.00 0.00 97 1015.4
20260510073856 57 188 0.0 0.0 0.00 0.00 0.00 97 1015.3
20260510073720 57 188 0.0 0.0 0.00 0.00 0.00 97 1015.4
20260510073621 57 188 0.0 0.0 0.00 0.00 0.00 97 1015.3
20260510073519 57 188 0.0 0.0 0.00 0.00 0.00 97 1015.3
20260510073420 57 188 0.0 0.0 0.00 0.00 0.00 97 1015.4
20260510073319 57 188 0.0 0.0 0.00 0.00 0.00 97 1015.3
20260510073218 57 188 0.0 0.0 0.00 0.00 0.00 97 1015.4
20260510073119 57 188 0.0 0.0 0.00 0.00 0.00 97 1015.4
20260510073016 57 188 0.0 0.0 0.00 0.00 0.00 97 1015.3
20260510072913 58 186 0.0 0.0 0.00 0.00 0.00 97 1015.4
20260510072808 58 186 0.0 0.0 0.00 0.00 0.00 97 1015.3
20260510072707 57 186 0.0 0.0 0.00 0.00 0.00 97 1015.4
20260510072607 57 176 0.0 0.0 0.00 0.00 0.00 97 1015.3
20260510072506 58 176 0.0 0.0 0.00 0.00 0.00 97 1015.2
20260510072301 57 165 0.0 0.0 0.00 0.00 0.00 97 1015.3
20260510072200 58 166 0.0 0.0 0.00 0.00 0.00 97 1015.2
20260510072102 58 166 0.0 0.0 0.00 0.00 0.00 97 1015.2
20260510072001 58 166 0.0 0.0 0.00 0.00 0.00 97 1015.2
20260510071901 58 165 0.0 0.0 0.00 0.00 0.00 97 1015.1
20260510071758 58 165 0.0 0.0 0.00 0.00 0.00 97 1015.2
20260510071657 58 165 0.0 0.0 0.00 0.00 0.00 97 1015.1
20260510071558 58 166 0.0 0.0 0.00 0.00 0.00 97 1015.2
20260510071458 58 166 0.0 0.0 0.00 0.00 0.00 97 1015.2
20260510071356 58 166 0.0 0.0 0.00 0.00 0.00 97 1015.1
20260510071330 58 166 0.0 0.0 0.00 0.00 0.00 97 1015.1
20260510071149 58 166 0.0 0.0 0.00 0.00 0.00 97 1015.2
20260510071049 58 165 0.0 0.0 0.00 0.00 0.00 97 1015.1
20260510070949 58 165 0.0 0.0 0.00 0.00 0.00 97 1015.2
20260510070849 58 165 0.0 0.0 0.00 0.00 0.00 97 1015.2
20260510070743 58 165 0.0 0.0 0.00 0.00 0.00 97 1015.2
20260510070643 58 165 0.0 0.0 0.00 0.00 0.00 97 1015.3
20260510070542 58 166 0.0 0.0 0.00 0.00 0.00 97 1015.4
20260510070444 58 166 0.0 0.0 0.00 0.00 0.00 97 1015.2
20260510070344 58 153 0.0 0.0 0.00 0.00 0.00 97 1015.2
20260510070244 58 153 0.0 1.0 0.00 0.00 0.00 97 1015.3
20260510070141 58 153 0.0 1.0 0.00 0.00 0.00 97 1015.2
20260510070041 58 153 0.0 1.0 0.00 0.00 0.00 97 1015.3
20260510065940 58 153 0.0 1.0 0.00 0.00 0.00 97 1015.3
20260510065731 58 153 0.0 1.0 0.00 0.00 0.00 97 1015.3
20260510065631 58 153 0.0 1.0 0.00 0.00 0.00 97 1015.4
20260510065531 58 153 0.0 1.0 0.00 0.00 0.00 97 1015.3
20260510065431 58 153 0.0 1.0 0.00 0.00 0.00 97 1015.3
20260510065332 58 256 0.0 1.0 0.00 0.00 0.00 97 1015.4
20260510065126 58 341 0.0 0.0 0.00 0.00 0.00 96 1015.3
20260510065025 58 340 0.0 0.0 0.00 0.00 0.00 97 1015.3
20260510064926 58 340 0.0 0.0 0.00 0.00 0.00 97 1015.4
20260510064826 58 341 0.0 1.0 0.00 0.00 0.00 97 1015.3
20260510064622 58 340 0.0 1.0 0.00 0.00 0.00 96 1015.3
20260510064520 58 340 0.0 1.0 0.00 0.00 0.00 96 1015.3
20260510064419 58 341 0.0 1.0 0.00 0.00 0.00 96 1015.3
20260510064335 58 340 0.0 1.0 0.00 0.00 0.00 96 1015.3
20260510064212 58 341 0.0 1.0 0.00 0.00 0.00 96 1015.4
20260510064112 58 340 0.0 1.0 0.00 0.00 0.00 96 1015.3
20260510064014 59 340 0.0 1.0 0.00 0.00 0.00 96 1015.3
20260510063914 59 340 0.0 1.0 0.00 0.00 0.00 96 1015.3
20260510063814 59 341 0.0 1.0 0.00 0.00 0.00 96 1015.3
20260510063709 59 340 0.0 0.0 0.00 0.00 0.00 96 1015.2
20260510063608 59 340 0.0 0.0 0.00 0.00 0.00 96 1015.2
20260510063507 59 340 0.0 0.0 0.00 0.00 0.00 96 1015.2
20260510063407 59 340 0.0 0.0 0.00 0.00 0.00 96 1015.1
20260510063308 59 340 0.0 0.0 0.00 0.00 0.00 96 1015.1
20260510063202 59 341 0.0 0.0 0.00 0.00 0.00 96 1015.1
20260510063101 59 341 0.0 0.0 0.00 0.00 0.00 96 1015.2
20260510063001 59 340 0.0 0.0 0.00 0.00 0.00 96 1015.0
20260510062902 59 340 0.0 0.0 0.00 0.00 0.00 96 1015.1
20260510062802 59 340 0.0 0.0 0.00 0.00 0.00 96 1015.0
20260510062658 59 340 0.0 0.0 0.00 0.00 0.00 96 1015.2
20260510062559 59 340 0.0 0.0 0.00 0.00 0.00 96 1015.1
20260510062500 59 340 0.0 0.0 0.00 0.00 0.00 96 1015.2
20260510062358 59 341 0.0 0.0 0.00 0.00 0.00 96 1015.1
20260510062256 59 340 0.0 0.0 0.00 0.00 0.00 96 1015.1
20260510062152 59 341 0.0 0.0 0.00 0.00 0.00 96 1015.2
20260510062054 59 340 0.0 0.0 0.00 0.00 0.00 96 1015.1
20260510061951 59 340 0.0 0.0 0.00 0.00 0.00 96 1015.1
20260510061852 59 340 0.0 0.0 0.00 0.00 0.00 96 1015.3
20260510061750 59 340 0.0 0.0 0.00 0.00 0.00 96 1015.3
20260510061649 59 340 0.0 0.0 0.00 0.00 0.00 96 1015.3
20260510061546 59 340 0.0 0.0 0.00 0.00 0.00 96 1015.3
20260510061447 59 340 0.0 0.0 0.00 0.00 0.00 96 1015.3
20260510061346 59 340 0.0 0.0 0.00 0.00 0.00 96 1015.3
20260510061244 59 340 0.0 0.0 0.00 0.00 0.00 96 1015.2
20260510061138 59 340 0.0 0.0 0.00 0.00 0.00 96 1015.2
20260510061040 59 340 0.0 0.0 0.00 0.00 0.00 96 1015.2
20260510060940 59 340 0.0 0.0 0.00 0.00 0.00 96 1015.2
20260510060840 59 340 0.0 1.0 0.00 0.00 0.00 95 1015.3
20260510060738 59 340 0.0 1.0 0.00 0.00 0.00 95 1015.3
20260510060639 60 340 0.0 1.0 0.00 0.00 0.00 95 1015.2
20260510060540 60 341 0.0 1.0 0.00 0.00 0.00 95 1015.2
20260510060440 60 341 0.0 1.0 0.00 0.00 0.00 95 1015.2
20260510060336 60 341 0.0 1.0 0.00 0.00 0.00 95 1015.3
20260510060238 60 341 0.0 1.0 0.00 0.00 0.00 95 1015.3
20260510060136 60 340 0.0 1.0 0.00 0.00 0.00 95 1015.3
20260510060037 60 340 0.0 1.0 0.00 0.00 0.00 95 1015.2
20260510055936 60 341 0.0 1.0 0.00 0.00 0.00 95 1015.3
20260510055839 60 341 0.0 0.0 0.00 0.00 0.00 95 1015.3
20260510055822 60 340 0.0 0.0 0.00 0.00 0.00 95 1015.2
20260510055634 60 340 0.0 0.0 0.00 0.00 0.00 95 1015.3
20260510055535 60 341 0.0 0.0 0.00 0.00 0.00 94 1015.3
20260510055436 60 340 0.0 0.0 0.00 0.00 0.00 94 1015.3
20260510055334 60 340 0.0 0.0 0.00 0.00 0.00 94 1015.3
20260510055233 60 340 0.0 0.0 0.00 0.00 0.00 94 1015.3
20260510055134 60 340 0.0 0.0 0.00 0.00 0.00 94 1015.3
20260510055034 60 340 0.0 0.0 0.00 0.00 0.00 94 1015.3
20260510054930 60 340 0.0 0.0 0.00 0.00 0.00 94 1015.3
20260510054836 60 340 0.0 0.0 0.00 0.00 0.00 94 1015.3
20260510054818 60 341 0.0 0.0 0.00 0.00 0.00 94 1015.3
20260510054630 60 341 0.0 0.0 0.00 0.00 0.00 94 1015.3
20260510054528 60 340 0.0 0.0 0.00 0.00 0.00 94 1015.3
20260510054420 60 341 0.0 0.0 0.00 0.00 0.00 94 1015.3
20260510054321 60 341 0.0 0.0 0.00 0.00 0.00 94 1015.2
20260510054123 60 340 0.0 0.0 0.00 0.00 0.00 93 1015.4
20260510054022 60 341 0.0 0.0 0.00 0.00 0.00 93 1015.3
20260510053914 61 341 0.0 0.0 0.00 0.00 0.00 93 1015.4
20260510053821 61 340 0.0 0.0 0.00 0.00 0.00 93 1015.4
20260510053805 61 341 0.0 0.0 0.00 0.00 0.00 93 1015.4
20260510053614 61 340 0.0 0.0 0.00 0.00 0.00 93 1015.4
20260510053515 61 340 0.0 0.0 0.00 0.00 0.00 93 1015.4
20260510053415 61 340 0.0 0.0 0.00 0.00 0.00 93 1015.4
20260510053312 61 340 0.0 0.0 0.00 0.00 0.00 93 1015.4
20260510053214 61 341 0.0 0.0 0.00 0.00 0.00 93 1015.4
20260510053112 61 341 0.0 0.0 0.00 0.00 0.00 93 1015.4
20260510053010 61 340 0.0 0.0 0.00 0.00 0.00 93 1015.3
20260510052904 61 341 0.0 0.0 0.00 0.00 0.00 92 1015.4
20260510052802 61 341 0.0 0.0 0.00 0.00 0.00 92 1015.4
20260510052702 61 340 0.0 0.0 0.00 0.00 0.00 92 1015.4
20260510052604 61 341 0.0 0.0 0.00 0.00 0.00 92 1015.4
20260510052504 61 340 0.0 0.0 0.00 0.00 0.00 92 1015.4
20260510052356 62 340 0.0 0.0 0.00 0.00 0.00 92 1015.5
20260510052307 62 340 0.0 0.0 0.00 0.00 0.00 92 1015.4
20260510052249 62 340 0.0 0.0 0.00 0.00 0.00 92 1015.5
20260510052057 62 340 0.0 0.0 0.00 0.00 0.00 92 1015.4
20260510051957 62 340 0.0 0.0 0.00 0.00 0.00 92 1015.5
20260510051902 62 340 0.0 0.0 0.00 0.00 0.00 91 1015.5
20260510051755 62 341 0.0 0.0 0.00 0.00 0.00 91 1015.4
20260510051553 62 340 0.0 0.0 0.00 0.00 0.00 91 1015.5
20260510051452 62 340 0.0 0.0 0.00 0.00 0.00 91 1015.4
20260510051344 62 341 0.0 1.0 0.00 0.00 0.00 91 1015.5
20260510051246 62 340 0.0 1.0 0.00 0.00 0.00 91 1015.4
20260510051146 62 341 0.0 1.0 0.00 0.00 0.00 91 1015.5
20260510051044 63 341 0.0 1.0 0.00 0.00 0.00 91 1015.5
20260510050944 63 340 0.0 1.0 0.00 0.00 0.00 91 1015.6
20260510050844 63 340 0.0 1.0 0.00 0.00 0.00 91 1015.6
20260510050746 63 340 0.0 1.0 0.00 0.00 0.00 91 1015.5
20260510050544 63 341 0.0 1.0 0.00 0.00 0.00 91 1015.5
20260510050444 63 341 0.0 1.0 0.00 0.00 0.00 91 1015.5
20260510050340 63 39 0.0 0.0 0.00 0.00 0.00 91 1015.5
20260510050239 63 39 0.0 0.0 0.00 0.00 0.00 91 1015.5
20260510050036 63 39 0.0 1.0 0.00 0.00 0.00 91 1015.6
20260510045937 63 39 0.0 1.0 0.00 0.00 0.00 91 1015.6
20260510045736 63 37 0.0 1.0 0.00 0.00 0.00 91 1015.5
20260510045635 63 37 0.0 1.0 0.00 0.00 0.00 91 1015.5
20260510045534 63 37 0.0 1.0 0.00 0.00 0.00 91 1015.6
20260510045435 63 39 0.0 1.0 0.00 0.00 0.00 91 1015.6
20260510045336 63 39 0.0 1.0 0.00 0.00 0.00 91 1015.6
20260510045251 63 39 0.0 1.0 0.00 0.00 0.00 90 1015.6
20260510045129 63 39 0.0 0.0 0.00 0.00 0.00 90 1015.7
20260510045029 63 39 0.0 1.0 0.00 0.00 0.00 90 1015.6
20260510044929 63 39 0.0 1.0 0.00 0.00 0.00 90 1015.6
20260510044829 63 39 0.0 1.0 0.00 0.00 0.00 90 1015.7
20260510044728 63 39 0.0 1.0 0.00 0.00 0.00 89 1015.5
20260510044631 63 38 0.0 2.0 0.00 0.00 0.00 89 1015.6
20260510044529 63 39 0.0 2.0 0.00 0.00 0.00 89 1015.5
20260510044428 63 39 0.0 2.0 0.00 0.00 0.00 89 1015.5
20260510044329 63 39 1.0 2.0 0.00 0.00 0.00 89 1015.5
20260510044229 64 39 1.0 2.0 0.00 0.00 0.00 89 1015.5
20260510044129 64 39 1.0 3.0 0.00 0.00 0.00 89 1015.5
20260510044030 64 39 1.0 3.0 0.00 0.00 0.00 89 1015.5
20260510043925 64 16 1.0 3.0 0.00 0.00 0.00 89 1015.5
20260510043826 64 350 1.0 3.0 0.00 0.00 0.00 89 1015.6
20260510043724 64 64 1.0 3.0 0.00 0.00 0.00 89 1015.5
20260510043625 64 52 1.0 3.0 0.00 0.00 0.00 89 1015.6
20260510043525 64 52 1.0 3.0 0.00 0.00 0.00 89 1015.6
20260510043425 64 240 0.0 3.0 0.00 0.00 0.00 89 1015.6
20260510043325 64 92 0.0 3.0 0.00 0.00 0.00 89 1015.5
20260510043224 64 246 0.0 3.0 0.00 0.00 0.00 89 1015.5
20260510043124 64 269 0.0 3.0 0.00 0.00 0.00 89 1015.5
20260510043026 64 217 0.0 3.0 0.00 0.00 0.00 89 1015.5
20260510042925 64 135 0.0 3.0 0.00 0.00 0.00 89 1015.5
20260510042825 64 210 1.0 5.0 0.00 0.00 0.00 88 1015.5
20260510042724 64 193 1.0 5.0 0.00 0.00 0.00 89 1015.5
20260510042626 64 193 1.0 5.0 0.00 0.00 0.00 88 1015.5
20260510042526 64 274 1.0 5.0 0.00 0.00 0.00 89 1015.5
20260510042425 64 274 1.0 5.0 0.00 0.00 0.00 89 1015.5
20260510042325 64 143 1.0 5.0 0.00 0.00 0.00 88 1015.5
20260510042225 64 198 1.0 5.0 0.00 0.00 0.00 89 1015.5
20260510042126 64 241 1.0 5.0 0.00 0.00 0.00 89 1015.5
20260510042022 64 208 1.0 5.0 0.00 0.00 0.00 89 1015.5
20260510041920 64 192 1.0 5.0 0.00 0.00 0.00 88 1015.6
20260510041821 64 154 1.0 4.0 0.00 0.00 0.00 89 1015.5
20260510041721 64 238 1.0 4.0 0.00 0.00 0.00 88 1015.5
20260510041620 64 247 1.0 4.0 0.00 0.00 0.00 88 1015.5
20260510041521 64 210 1.0 4.0 0.00 0.00 0.00 88 1015.6
20260510041420 64 208 1.0 4.0 0.00 0.00 0.00 88 1015.5
20260510041322 64 274 1.0 4.0 0.00 0.00 0.00 88 1015.5
20260510041221 64 252 1.0 4.0 0.00 0.00 0.00 88 1015.5
20260510041120 64 272 1.0 4.0 0.00 0.00 0.00 88 1015.5
20260510040920 64 211 1.0 4.0 0.00 0.00 0.00 88 1015.5
20260510040821 64 210 1.0 4.0 0.00 0.00 0.00 88 1015.5
20260510040746 64 224 1.0 4.0 0.00 0.00 0.00 88 1015.5
20260510040622 64 245 1.0 4.0 0.00 0.00 0.00 88 1015.5
20260510040520 64 172 1.0 4.0 0.00 0.00 0.00 88 1015.5
20260510040422 64 266 1.0 4.0 0.00 0.00 0.00 88 1015.5
20260510040320 64 245 1.0 4.0 0.00 0.00 0.00 88 1015.5
20260510040222 64 176 1.0 4.0 0.00 0.00 0.00 88 1015.5
20260510040118 64 148 1.0 4.0 0.00 0.00 0.00 88 1015.5
20260510040018 64 240 1.0 4.0 0.00 0.00 0.00 88 1015.5
20260510035918 64 319 1.0 3.0 0.00 0.00 0.00 88 1015.5
20260510035815 64 309 1.0 3.0 0.00 0.00 0.00 88 1015.5
20260510035715 64 224 1.0 3.0 0.00 0.00 0.00 88 1015.6
20260510035611 64 212 1.0 3.0 0.00 0.00 0.00 88 1015.6
20260510035508 64 210 1.0 3.0 0.00 0.00 0.00 88 1015.6
20260510035407 64 165 1.0 3.0 0.00 0.00 0.00 88 1015.6
20260510035307 64 165 1.0 3.0 0.00 0.00 0.00 88 1015.5
20260510035209 64 204 1.0 4.0 0.00 0.00 0.00 88 1015.6
20260510035106 64 231 1.0 4.0 0.00 0.00 0.00 88 1015.6
20260510035007 64 170 1.0 4.0 0.00 0.00 0.00 88 1015.6
20260510034906 64 188 1.0 4.0 0.00 0.00 0.00 88 1015.6
20260510034805 64 191 1.0 4.0 0.00 0.00 0.00 88 1015.6
20260510034702 64 252 1.0 4.0 0.00 0.00 0.00 88 1015.6
20260510034557 64 225 1.0 4.0 0.00 0.00 0.00 88 1015.6
20260510034456 64 224 1.0 4.0 0.00 0.00 0.00 88 1015.7
20260510034357 64 274 1.0 4.0 0.00 0.00 0.00 88 1015.6
20260510034256 64 180 1.0 4.0 0.00 0.00 0.00 87 1015.6
20260510034156 64 295 1.0 4.0 0.00 0.00 0.00 87 1015.6
20260510034056 64 296 1.0 4.0 0.00 0.00 0.00 87 1015.6
20260510033955 64 296 1.0 4.0 0.00 0.00 0.00 88 1015.6
20260510033854 64 268 1.0 4.0 0.00 0.00 0.00 88 1015.7
20260510033753 64 269 1.0 4.0 0.00 0.00 0.00 88 1015.7
20260510033651 64 233 1.0 4.0 0.00 0.00 0.00 88 1015.6
20260510033544 64 143 1.0 4.0 0.00 0.00 0.00 88 1015.6
20260510033445 64 206 1.0 4.0 0.00 0.00 0.00 87 1015.7
20260510033345 64 166 1.0 4.0 0.00 0.00 0.00 87 1015.6
20260510033242 64 236 1.0 4.0 0.00 0.00 0.00 88 1015.6
20260510033143 64 226 1.0 4.0 0.00 0.00 0.00 87 1015.7
20260510033037 64 212 1.0 4.0 0.00 0.00 0.00 87 1015.7
20260510032936 64 230 1.0 4.0 0.00 0.00 0.00 87 1015.8
20260510032836 64 230 1.0 4.0 0.00 0.00 0.00 87 1015.7
20260510032752 64 158 1.0 4.0 0.00 0.00 0.00 87 1015.6
20260510032734 64 200 1.0 5.0 0.00 0.00 0.00 87 1015.6
20260510032531 64 271 1.0 5.0 0.00 0.00 0.00 87 1015.7
20260510032430 64 200 1.0 5.0 0.00 0.00 0.00 87 1015.7
20260510032328 64 200 1.0 5.0 0.00 0.00 0.00 87 1015.7
20260510032227 64 200 1.0 5.0 0.00 0.00 0.00 87 1015.6
20260510032021 64 218 1.0 5.0 0.00 0.00 0.00 87 1015.7
20260510031922 64 233 1.0 5.0 0.00 0.00 0.00 87 1015.7
20260510031821 64 226 1.0 5.0 0.00 0.00 0.00 87 1015.6
20260510031721 64 163 1.0 3.0 0.00 0.00 0.00 87 1015.5
20260510031623 64 157 1.0 3.0 0.00 0.00 0.00 87 1015.6
20260510031521 64 151 1.0 3.0 0.00 0.00 0.00 87 1015.5
20260510031421 64 236 1.0 3.0 0.00 0.00 0.00 87 1015.5
20260510031319 64 209 1.0 3.0 0.00 0.00 0.00 87 1015.6
20260510031217 64 171 1.0 3.0 0.00 0.00 0.00 87 1015.5
20260510031119 64 154 1.0 3.0 0.00 0.00 0.00 87 1015.6
20260510031012 64 213 1.0 3.0 0.00 0.00 0.00 87 1015.5
20260510030911 64 217 1.0 3.0 0.00 0.00 0.00 87 1015.5
20260510030813 65 212 1.0 5.0 0.00 0.00 0.00 87 1015.6
20260510030712 65 186 1.0 5.0 0.00 0.00 0.00 87 1015.5
20260510030612 65 209 2.0 5.0 0.00 0.00 0.00 87 1015.5
20260510030510 65 211 2.0 5.0 0.00 0.00 0.00 87 1015.5
20260510030408 65 205 2.0 5.0 0.00 0.00 0.00 86 1015.4
20260510030308 65 217 2.0 5.0 0.00 0.00 0.00 86 1015.5
20260510030237 65 207 2.0 5.0 0.00 0.00 0.00 86 1015.4
20260510030105 65 208 2.0 5.0 0.00 0.00 0.00 86 1015.5
20260510025957 65 189 2.0 5.0 0.00 0.00 0.00 86 1015.5
20260510025858 65 242 2.0 5.0 0.00 0.00 0.00 86 1015.4
20260510025758 65 164 2.0 4.0 0.00 0.00 0.00 86 1015.4
20260510025659 65 175 2.0 4.0 0.00 0.00 0.00 86 1015.4
20260510025557 65 210 2.0 4.0 0.00 0.00 0.00 86 1015.4
20260510025452 65 167 2.0 4.0 0.00 0.00 0.00 86 1015.4
20260510025352 65 208 2.0 4.0 0.00 0.00 0.00 86 1015.4
20260510025254 65 147 1.0 4.0 0.00 0.00 0.00 86 1015.4
20260510025234 65 193 1.0 4.0 0.00 0.00 0.00 86 1015.4
20260510025051 65 160 1.0 3.0 0.00 0.00 0.00 86 1015.4
20260510024944 65 179 1.0 3.0 0.00 0.00 0.00 86 1015.4
20260510024844 65 179 1.0 3.0 0.00 0.00 0.00 86 1015.4
20260510024743 65 217 1.0 3.0 0.00 0.00 0.00 86 1015.3
20260510024716 65 163 1.0 3.0 0.00 0.00 0.00 86 1015.3
20260510024705 65 216 1.0 3.0 0.00 0.00 0.00 86 1015.4
20260510024440 65 177 1.0 3.0 0.00 0.00 0.00 86 1015.4
20260510024339 65 212 1.0 3.0 0.00 0.00 0.00 86 1015.3
20260510024239 65 213 1.0 3.0 0.00 0.00 0.00 86 1015.3
20260510024036 65 240 1.0 3.0 0.00 0.00 0.00 86 1015.3
20260510023936 65 225 1.0 3.0 0.00 0.00 0.00 86 1015.4
20260510023835 65 206 1.0 3.0 0.00 0.00 0.00 86 1015.3
20260510023744 65 172 1.0 3.0 0.00 0.00 0.00 86 1015.4
20260510023728 65 197 1.0 3.0 0.00 0.00 0.00 86 1015.3
20260510023536 65 204 1.0 3.0 0.00 0.00 0.00 85 1015.3
20260510023434 65 174 1.0 3.0 0.00 0.00 0.00 85 1015.3
20260510023333 65 161 1.0 3.0 0.00 0.00 0.00 85 1015.3
20260510023235 65 215 1.0 3.0 0.00 0.00 0.00 85 1015.3
20260510023134 65 151 1.0 3.0 0.00 0.00 0.00 85 1015.3
20260510023034 65 165 1.0 3.0 0.00 0.00 0.00 85 1015.2
20260510022934 65 164 1.0 3.0 0.00 0.00 0.00 85 1015.2
20260510022834 65 155 1.0 3.0 0.00 0.00 0.00 85 1015.2
20260510022735 65 172 1.0 3.0 0.00 0.00 0.00 85 1015.3
20260510022633 65 204 1.0 3.0 0.00 0.00 0.00 85 1015.2
20260510022435 65 184 1.0 3.0 0.00 0.00 0.00 85 1015.2
20260510022333 65 143 1.0 3.0 0.00 0.00 0.00 85 1015.3
20260510022247 65 186 1.0 3.0 0.00 0.00 0.00 85 1015.3
20260510022229 65 217 1.0 3.0 0.00 0.00 0.00 85 1015.3
20260510022029 65 211 1.0 3.0 0.00 0.00 0.00 85 1015.3
20260510021930 65 186 1.0 3.0 0.00 0.00 0.00 85 1015.2
20260510021831 65 176 1.0 3.0 0.00 0.00 0.00 85 1015.3
20260510021730 65 205 1.0 3.0 0.00 0.00 0.00 85 1015.2
20260510021631 65 173 1.0 3.0 0.00 0.00 0.00 85 1015.2
20260510021530 65 212 1.0 3.0 0.00 0.00 0.00 85 1015.2
20260510021429 65 210 1.0 3.0 0.00 0.00 0.00 85 1015.2
20260510021330 65 179 1.0 3.0 0.00 0.00 0.00 85 1015.1
20260510021243 65 219 1.0 3.0 0.00 0.00 0.00 85 1015.1
20260510021226 65 216 1.0 3.0 0.00 0.00 0.00 85 1015.1
20260510021030 65 223 1.0 3.0 0.00 0.00 0.00 85 1015.0
20260510020929 65 210 1.0 3.0 0.00 0.00 0.00 85 1015.0
20260510020830 65 197 1.0 3.0 0.00 0.00 0.00 84 1015.1
20260510020729 65 211 1.0 3.0 0.00 0.00 0.00 84 1015.1
20260510020629 65 223 1.0 3.0 0.00 0.00 0.00 84 1015.0
20260510020530 65 225 1.0 2.0 0.00 0.00 0.00 84 1015.1
20260510020430 65 225 1.0 2.0 0.00 0.00 0.00 84 1015.1
20260510020330 65 219 1.0 3.0 0.00 0.00 0.00 84 1015.1
20260510020241 65 217 1.0 3.0 0.00 0.00 0.00 84 1015.2
20260510020224 65 221 1.0 3.0 0.00 0.00 0.00 84 1015.2
20260510020026 65 221 1.0 3.0 0.00 0.00 0.00 84 1015.1
20260510015925 65 239 1.0 3.0 0.00 0.00 0.00 84 1015.1
20260510015825 65 207 1.0 3.0 0.00 0.00 0.00 84 1015.2
20260510015725 66 150 1.0 3.0 0.00 0.00 0.00 84 1015.1
20260510015625 66 139 2.0 3.0 0.00 0.00 0.00 84 1015.1
20260510015527 66 168 1.0 3.0 0.00 0.00 0.00 84 1015.1
20260510015426 66 224 1.0 3.0 0.00 0.00 0.00 84 1015.1
20260510015325 66 197 1.0 3.0 0.00 0.00 0.00 84 1015.0
20260510015227 66 214 1.0 3.0 0.00 0.00 0.00 84 1015.1
20260510015126 66 204 1.0 3.0 0.00 0.00 0.00 84 1015.0
20260510015026 66 181 1.0 3.0 0.00 0.00 0.00 84 1015.0
20260510014927 66 193 1.0 3.0 0.00 0.00 0.00 84 1015.0
20260510014825 66 223 1.0 3.0 0.00 0.00 0.00 84 1015.0
20260510014726 66 169 1.0 3.0 0.00 0.00 0.00 84 1015.0
20260510014525 66 217 1.0 3.0 0.00 0.00 0.00 84 1015.1
20260510014425 66 257 1.0 3.0 0.00 0.00 0.00 84 1015.0
20260510014327 66 221 1.0 4.0 0.00 0.00 0.00 84 1015.0
20260510014221 66 224 1.0 4.0 0.00 0.00 0.00 84 1014.9
20260510014021 66 195 1.0 4.0 0.00 0.00 0.00 83 1014.8
20260510013921 66 238 1.0 4.0 0.00 0.00 0.00 83 1014.8
20260510013823 66 193 1.0 4.0 0.00 0.00 0.00 83 1014.8
20260510013721 66 184 1.0 4.0 0.00 0.00 0.00 83 1014.7
20260510013522 66 207 1.0 4.0 0.00 0.00 0.00 83 1014.7
20260510013421 66 224 1.0 4.0 0.00 0.00 0.00 83 1014.7
20260510013322 66 198 1.0 3.0 0.00 0.00 0.00 83 1014.6
20260510013241 66 273 1.0 3.0 0.00 0.00 0.00 83 1014.7
20260510013223 66 217 1.0 3.0 0.00 0.00 0.00 83 1014.6
20260510013022 66 195 1.0 3.0 0.00 0.00 0.00 83 1014.7
20260510012921 66 237 1.0 3.0 0.00 0.00 0.00 83 1014.6
20260510012821 66 179 1.0 3.0 0.00 0.00 0.00 83 1014.6
20260510012722 66 162 1.0 3.0 0.00 0.00 0.00 83 1014.6
20260510012621 66 229 1.0 3.0 0.00 0.00 0.00 83 1014.5
20260510012522 66 169 0.0 3.0 0.00 0.00 0.00 83 1014.5
20260510012423 66 214 0.0 3.0 0.00 0.00 0.00 83 1014.5
20260510012318 66 222 0.0 3.0 0.00 0.00 0.00 83 1014.5
20260510012236 66 212 0.0 3.0 0.00 0.00 0.00 83 1014.5
20260510012219 66 221 0.0 3.0 0.00 0.00 0.00 83 1014.5
20260510012017 66 221 0.0 3.0 0.00 0.00 0.00 83 1014.4
20260510011919 66 221 0.0 3.0 0.00 0.00 0.00 83 1014.3
20260510011819 66 221 0.0 3.0 0.00 0.00 0.00 83 1014.4
20260510011717 66 238 0.0 3.0 0.00 0.00 0.00 83 1014.4
20260510011619 67 231 0.0 2.0 0.00 0.00 0.00 82 1014.3
20260510011519 67 184 1.0 2.0 0.00 0.00 0.00 82 1014.3
20260510011417 67 184 1.0 2.0 0.00 0.00 0.00 82 1014.3
20260510011318 67 184 1.0 2.0 0.00 0.00 0.00 82 1014.2
20260510011234 67 175 1.0 2.0 0.00 0.00 0.00 82 1014.2
20260510011218 67 174 1.0 2.0 0.00 0.00 0.00 82 1014.2
20260510011017 67 222 1.0 2.0 0.00 0.00 0.00 82 1014.2
20260510010917 67 222 1.0 2.0 0.00 0.00 0.00 82 1014.2
20260510010818 67 217 1.0 2.0 0.00 0.00 0.00 82 1014.2
20260510010735 67 224 1.0 2.0 0.00 0.00 0.00 82 1014.2
20260510010719 67 207 1.0 3.0 0.00 0.00 0.00 82 1014.2
20260510010518 67 229 1.0 3.0 0.00 0.00 0.00 82 1014.2
20260510010413 67 211 1.0 3.0 0.00 0.00 0.00 81 1014.2
20260510010314 67 140 1.0 3.0 0.00 0.00 0.00 81 1014.2
20260510010213 67 219 1.0 3.0 0.00 0.00 0.00 81 1014.2
20260510010013 67 182 1.0 4.0 0.00 0.00 0.00 81 1014.2
20260510005913 67 182 1.0 4.0 0.00 0.00 0.00 81 1014.0
20260510005815 67 179 1.0 4.0 0.00 0.00 0.00 81 1014.1
20260510005713 67 203 1.0 4.0 0.00 0.00 0.00 81 1014.1
20260510005515 68 213 1.0 4.0 0.00 0.00 0.00 80 1014.1
20260510005413 68 227 1.0 4.0 0.00 0.00 0.00 80 1014.1
20260510005314 68 227 1.0 4.0 0.00 0.00 0.00 80 1014.0
20260510005213 68 227 1.0 4.0 0.00 0.00 0.00 80 1013.9
20260510005013 68 138 1.0 3.0 0.00 0.00 0.00 80 1014.0
20260510004914 68 156 1.0 3.0 0.00 0.00 0.00 80 1014.0
20260510004814 68 178 1.0 3.0 0.00 0.00 0.00 80 1014.0
20260510004713 68 170 1.0 3.0 0.00 0.00 0.00 79 1014.0
20260510004515 68 205 1.0 3.0 0.00 0.00 0.00 79 1013.9
20260510004412 68 209 1.0 3.0 0.00 0.00 0.00 79 1013.9
20260510004312 68 207 1.0 5.0 0.00 0.00 0.00 79 1013.9
20260510004211 69 177 2.0 5.0 0.00 0.00 0.00 79 1013.9
20260510004004 69 190 1.0 5.0 0.00 0.00 0.00 79 1013.8
20260510003905 69 195 1.0 5.0 0.00 0.00 0.00 78 1013.8
20260510003803 69 167 1.0 5.0 0.00 0.00 0.00 78 1013.8
20260510003724 69 226 2.0 5.0 0.00 0.00 0.00 78 1013.8
20260510003710 69 147 2.0 5.0 0.00 0.00 0.00 78 1013.8
20260510003459 69 207 2.0 5.0 0.00 0.00 0.00 78 1013.8
20260510003400 69 206 2.0 5.0 0.00 0.00 0.00 78 1013.8
20260510003300 69 210 2.0 5.0 0.00 0.00 0.00 78 1013.7
20260510003218 69 167 2.0 5.0 0.00 0.00 0.00 78 1013.7
20260510003200 69 239 2.0 5.0 0.00 0.00 0.00 77 1013.7
20260510002957 69 259 2.0 5.0 0.00 0.00 0.00 77 1013.9
20260510002853 69 209 2.0 5.0 0.00 0.00 0.00 77 1013.8
20260510002754 69 271 2.0 5.0 0.00 0.00 0.00 77 1013.8
20260510002652 69 218 2.0 5.0 0.00 0.00 0.00 77 1013.8
20260510002443 69 224 2.0 5.0 0.00 0.00 0.00 77 1013.7
20260510002344 69 239 2.0 5.0 0.00 0.00 0.00 77 1013.8
20260510002245 69 229 2.0 5.0 0.00 0.00 0.00 77 1013.7
20260510002143 69 172 2.0 5.0 0.00 0.00 0.00 77 1013.5
20260510001941 70 209 2.0 5.0 0.00 0.00 0.00 76 1013.7
20260510001843 70 197 2.0 6.0 0.00 0.00 0.00 76 1013.7
20260510001741 70 157 2.0 6.0 0.00 0.00 0.00 76 1013.5
20260510001640 70 208 2.0 6.0 0.00 0.00 0.00 76 1013.5
20260510001435 70 204 2.0 6.0 0.00 0.00 0.00 75 1013.7
20260510001332 70 191 2.0 6.0 0.00 0.00 0.00 75 1013.7
20260510001231 70 220 2.0 6.0 0.00 0.00 0.00 75 1013.7
20260510001133 70 208 2.0 6.0 0.00 0.00 0.00 75 1013.7
20260510000926 70 202 1.0 6.0 0.00 0.00 0.00 74 1013.7
20260510000826 70 204 1.0 5.0 0.00 0.00 0.00 74 1013.5
20260510000726 70 219 1.0 5.0 0.00 0.00 0.00 74 1013.4
20260510000626 70 132 1.0 5.0 0.00 0.00 0.00 74 1013.4
20260510000419 70 215 1.0 4.0 0.00 0.00 0.00 73 1013.5
20260510000319 70 203 1.0 4.0 0.00 0.00 0.00 74 1013.5
20260510000220 70 155 1.0 4.0 0.00 0.00 0.00 73 1013.3
20260510000119 70 217 1.0 4.0 0.00 0.00 0.00 73 1013.5
20260509235914 70 176 1.0 4.0 0.00 0.00 0.00 73 1013.4
20260509235813 70 219 1.0 4.0 0.00 0.00 0.00 73 1013.7
20260509235715 70 199 1.0 4.0 0.00 0.00 0.00 73 1013.5
20260509235613 70 209 1.0 5.0 0.00 0.00 0.00 73 1013.3
20260509235412 71 264 2.0 5.0 0.00 0.00 0.00 73 1013.4
20260509235312 71 224 2.0 5.0 0.00 0.00 0.00 73 1013.4
20260509235212 71 186 2.0 5.0 0.00 0.00 0.00 73 1013.5
20260509235109 71 250 2.0 5.0 0.00 0.00 0.00 73 1013.4
20260509234903 71 242 2.0 5.0 0.00 0.00 0.00 72 1013.4
20260509234803 71 239 2.0 5.0 0.00 0.00 0.00 72 1013.5
20260509234701 71 203 2.0 5.0 0.00 0.00 0.00 72 1013.4
20260509234603 71 202 2.0 4.0 0.00 0.00 0.00 73 1013.5
20260509234400 71 216 1.0 4.0 0.00 0.00 0.00 72 1013.3
20260509234259 71 207 2.0 4.0 0.00 0.00 0.00 72 1013.4
20260509234159 71 217 1.0 5.0 0.00 0.00 0.00 72 1013.4
20260509234058 71 230 1.0 5.0 0.00 0.00 0.00 72 1013.3
20260509233853 71 140 2.0 5.0 0.00 0.00 0.00 72 1013.2
20260509233749 71 160 2.0 5.0 0.00 0.00 0.00 72 1013.2
20260509233650 71 191 2.0 5.0 0.00 0.00 0.00 71 1013.1
20260509233549 71 158 2.0 6.0 0.00 0.00 0.00 71 1013.1
20260509233346 71 175 2.0 6.0 0.00 0.00 0.00 71 1013.1
20260509233245 71 221 2.0 6.0 0.00 0.00 0.00 71 1013.0
20260509233145 71 176 2.0 6.0 0.00 0.00 0.00 71 1013.0
20260509233047 71 179 2.0 6.0 0.00 0.00 0.00 71 1013.0
20260509232843 71 213 3.0 6.0 0.00 0.00 0.00 71 1013.0
20260509232742 71 198 2.0 6.0 0.00 0.00 0.00 71 1012.9
20260509232641 71 211 2.0 6.0 0.00 0.00 0.00 71 1012.9
20260509232601 71 162 2.0 6.0 0.00 0.00 0.00 71 1012.9
20260509232542 71 156 1.0 6.0 0.00 0.00 0.00 71 1012.9
20260509232333 72 160 1.0 6.0 0.00 0.00 0.00 71 1013.0
20260509232233 72 222 1.0 6.0 0.00 0.00 0.00 71 1013.0
20260509232132 72 211 1.0 6.0 0.00 0.00 0.00 71 1012.9
20260509232031 72 245 1.0 6.0 0.00 0.00 0.00 71 1012.9
20260509231826 72 150 1.0 3.0 0.00 0.00 0.00 72 1012.9
20260509231725 72 214 1.0 3.0 0.00 0.00 0.00 71 1013.0
20260509231626 72 214 1.0 3.0 0.00 0.00 0.00 71 1013.0
20260509231525 72 214 1.0 3.0 0.00 0.00 0.00 71 1013.0
20260509231323 72 128 1.0 3.0 0.00 0.00 0.00 71 1013.0
20260509231220 72 128 1.0 3.0 0.00 0.00 0.00 71 1013.0
20260509231121 72 128 1.0 3.0 0.00 0.00 0.00 72 1013.0
20260509231020 72 155 1.0 3.0 0.00 0.00 0.00 71 1012.9
20260509230817 72 214 1.0 3.0 0.00 0.00 0.00 71 1012.8
20260509230717 72 134 1.0 3.0 0.00 0.00 0.00 70 1012.8
20260509230615 72 179 0.0 3.0 0.00 0.00 0.00 70 1012.8
20260509230516 72 226 0.0 2.0 0.00 0.00 0.00 71 1012.8
20260509230309 72 178 0.0 2.0 0.00 0.00 0.00 71 1012.7
20260509230208 72 178 0.0 2.0 0.00 0.00 0.00 71 1012.7
20260509230108 72 153 0.0 2.0 0.00 0.00 0.00 71 1012.8
20260509230007 72 197 0.0 2.0 0.00 0.00 0.00 71 1012.7
20260509225807 72 206 0.0 2.0 0.00 0.00 0.00 71 1012.6
20260509225705 72 219 0.0 1.0 0.00 0.00 0.00 71 1012.6
20260509225605 72 240 0.0 1.0 0.00 0.00 0.00 71 1012.7
20260509225523 72 240 0.0 1.0 0.00 0.00 0.00 71 1012.7
20260509225506 72 236 0.0 1.0 0.00 0.00 0.00 71 1012.6
20260509225300 72 236 0.0 1.0 0.00 0.00 0.00 71 1012.7
20260509225159 72 236 0.0 1.0 0.00 0.00 0.00 71 1012.7
20260509225101 72 236 0.0 1.0 0.00 0.00 0.00 70 1012.7
20260509224957 72 236 0.0 3.0 0.00 0.00 0.00 70 1012.6
20260509224757 72 236 0.0 3.0 0.00 0.00 0.00 71 1012.6
20260509224655 72 236 0.0 3.0 0.00 0.00 0.00 70 1012.6
20260509224554 72 235 1.0 3.0 0.00 0.00 0.00 70 1012.6
20260509224452 72 269 1.0 3.0 0.00 0.00 0.00 69 1012.6
20260509224249 72 221 1.0 4.0 0.00 0.00 0.00 70 1012.6
20260509224147 72 279 1.0 5.0 0.00 0.00 0.00 69 1012.5
20260509224047 72 210 1.0 5.0 0.00 0.00 0.00 69 1012.4
20260509224012 72 174 1.0 5.0 0.00 0.00 0.00 69 1012.5
20260509223953 72 236 1.0 5.0 0.00 0.00 0.00 69 1012.4
20260509223741 72 236 2.0 5.0 0.00 0.00 0.00 69 1012.4
20260509223643 72 209 2.0 5.0 0.00 0.00 0.00 69 1012.5
20260509223539 72 227 2.0 5.0 0.00 0.00 0.00 68 1012.5
20260509223439 72 237 2.0 6.0 0.00 0.00 0.00 68 1012.6
20260509223234 73 282 2.0 6.0 0.00 0.00 0.00 68 1012.7
20260509223133 73 132 2.0 6.0 0.00 0.00 0.00 68 1012.7
20260509223033 73 220 2.0 6.0 0.00 0.00 0.00 67 1012.6
20260509222932 73 154 2.0 6.0 0.00 0.00 0.00 67 1012.7
20260509222727 73 252 2.0 6.0 0.00 0.00 0.00 67 1012.6
20260509222629 73 187 2.0 6.0 0.00 0.00 0.00 66 1012.6
20260509222526 73 205 2.0 6.0 0.00 0.00 0.00 67 1012.7
20260509222425 73 231 2.0 6.0 0.00 0.00 0.00 67 1012.7
20260509222218 73 219 2.0 6.0 0.00 0.00 0.00 67 1012.6
20260509222119 73 208 2.0 6.0 0.00 0.00 0.00 66 1012.6
20260509222019 74 203 2.0 6.0 0.00 0.00 0.00 66 1012.5
20260509221919 74 219 2.0 6.0 0.00 0.00 0.00 65 1012.6
20260509221714 74 191 2.0 6.0 0.00 0.00 0.00 65 1012.6
20260509221614 74 234 2.0 6.0 0.00 0.00 0.00 64 1012.6
20260509221513 74 217 2.0 6.0 0.00 0.00 0.00 65 1012.7
20260509221414 75 208 2.0 6.0 0.00 0.00 0.00 65 1012.6
20260509221208 75 181 2.0 7.0 0.00 0.00 0.00 64 1012.5
20260509221107 75 224 2.0 7.0 0.00 0.00 0.00 64 1012.5
20260509221008 75 160 2.0 7.0 0.00 0.00 0.00 64 1012.5
20260509220907 75 145 3.0 7.0 0.00 0.00 0.00 64 1012.5
20260509220703 75 224 3.0 8.0 0.00 0.00 0.00 64 1012.6
20260509220603 75 234 3.0 8.0 0.00 0.00 0.00 64 1012.6
20260509220503 75 201 4.0 8.0 0.00 0.00 0.00 64 1012.5
20260509220425 75 202 4.0 8.0 0.00 0.00 0.00 63 1012.6
20260509220406 76 184 4.0 8.0 0.00 0.00 0.00 64 1012.6
20260509220157 76 269 4.0 9.0 0.00 0.00 0.00 64 1012.6
20260509220055 76 161 4.0 9.0 0.00 0.00 0.00 64 1012.6
20260509215957 76 260 4.0 9.0 0.00 0.00 0.00 64 1012.6
20260509215855 76 229 4.0 9.0 0.00 0.00 0.00 64 1012.7
20260509215649 76 201 4.0 11.0 0.00 0.00 0.00 64 1012.7
20260509215551 75 224 4.0 11.0 0.00 0.00 0.00 64 1012.7
20260509215450 75 188 4.0 11.0 0.00 0.00 0.00 64 1012.6
20260509215351 75 221 5.0 11.0 0.00 0.00 0.00 64 1012.6
20260509215146 75 208 4.0 11.0 0.00 0.00 0.00 64 1012.6
20260509215043 75 227 5.0 11.0 0.00 0.00 0.00 65 1012.7
20260509214944 75 263 5.0 11.0 0.00 0.00 0.00 63 1012.7
20260509214842 75 208 4.0 11.0 0.00 0.00 0.00 64 1012.6
20260509214638 75 238 4.0 11.0 0.00 0.00 0.00 65 1012.6
20260509214538 75 186 3.0 11.0 0.00 0.00 0.00 64 1012.6
20260509214438 75 198 3.0 10.0 0.00 0.00 0.00 65 1012.6
20260509214338 74 223 2.0 7.0 0.00 0.00 0.00 66 1012.5
20260509214133 74 302 2.0 6.0 0.00 0.00 0.00 66 1012.5
20260509214034 74 208 2.0 6.0 0.00 0.00 0.00 67 1012.4
20260509213933 74 148 1.0 5.0 0.00 0.00 0.00 67 1012.4
20260509213853 74 321 2.0 6.0 0.00 0.00 0.00 66 1012.4
20260509213836 74 269 2.0 6.0 0.00 0.00 0.00 67 1012.4
20260509213628 74 215 2.0 6.0 0.00 0.00 0.00 67 1012.4
20260509213525 74 127 2.0 6.0 0.00 0.00 0.00 67 1012.4
20260509213426 74 173 2.0 6.0 0.00 0.00 0.00 66 1012.4
20260509213327 74 216 2.0 7.0 0.00 0.00 0.00 66 1012.4
20260509213122 74 165 3.0 7.0 0.00 0.00 0.00 66 1012.5
20260509213021 74 211 3.0 7.0 0.00 0.00 0.00 66 1012.5
20260509212921 74 203 3.0 7.0 0.00 0.00 0.00 66 1012.4
20260509212822 74 165 3.0 7.0 0.00 0.00 0.00 67 1012.4
20260509212617 75 140 3.0 9.0 0.00 0.00 0.00 65 1012.4
20260509212514 75 147 4.0 9.0 0.00 0.00 0.00 65 1012.5
20260509212414 75 226 4.0 9.0 0.00 0.00 0.00 65 1012.5
20260509212313 75 229 4.0 9.0 0.00 0.00 0.00 65 1012.4
20260509212110 75 72 4.0 9.0 0.00 0.00 0.00 65 1012.4
20260509212007 75 232 4.0 9.0 0.00 0.00 0.00 66 1012.3
20260509211908 75 124 4.0 9.0 0.00 0.00 0.00 66 1012.5
20260509211807 74 202 4.0 9.0 0.00 0.00 0.00 66 1012.5
20260509211603 74 159 3.0 9.0 0.00 0.00 0.00 67 1012.4
20260509211502 74 269 3.0 9.0 0.00 0.00 0.00 68 1012.4
20260509211401 74 228 2.0 9.0 0.00 0.00 0.00 67 1012.4
20260509211302 74 220 2.0 9.0 0.00 0.00 0.00 66 1012.4
20260509211056 74 163 2.0 7.0 0.00 0.00 0.00 66 1012.3
20260509210955 74 195 2.0 6.0 0.00 0.00 0.00 66 1012.3
20260509210856 74 233 2.0 6.0 0.00 0.00 0.00 66 1012.3
20260509210755 74 247 2.0 6.0 0.00 0.00 0.00 66 1012.2
20260509210553 74 257 2.0 6.0 0.00 0.00 0.00 65 1012.3
20260509210452 74 30 2.0 6.0 0.00 0.00 0.00 65 1012.1
20260509210354 75 194 2.0 6.0 0.00 0.00 0.00 64 1012.1
20260509210252 75 203 2.0 6.0 0.00 0.00 0.00 64 1012.1
20260509210045 75 222 2.0 6.0 0.00 0.00 0.00 64 1012.0
20260509205943 75 188 2.0 7.0 0.00 0.00 0.00 63 1012.1
20260509205847 75 255 2.0 7.0 0.00 0.00 0.00 64 1011.9
20260509205743 75 257 2.0 7.0 0.00 0.00 0.00 63 1012.0
20260509205540 75 284 3.0 7.0 0.00 0.00 0.00 64 1012.0
20260509205438 74 266 3.0 7.0 0.00 0.00 0.00 66 1012.1
20260509205237 74 190 3.0 7.0 0.00 0.00 0.00 64 1012.0
20260509205034 74 179 3.0 7.0 0.00 0.00 0.00 64 1012.0
20260509204930 74 182 2.0 7.0 0.00 0.00 0.00 63 1012.1
20260509204832 74 188 2.0 7.0 0.00 0.00 0.00 63 1012.0
20260509204730 75 239 2.0 7.0 0.00 0.00 0.00 63 1012.0
20260509204524 75 261 2.0 7.0 0.00 0.00 0.00 64 1012.1
20260509204426 75 290 2.0 8.0 0.00 0.00 0.00 64 1012.1
20260509204324 74 158 3.0 8.0 0.00 0.00 0.00 65 1012.1
20260509204226 74 214 3.0 8.0 0.00 0.00 0.00 64 1012.2
20260509204021 74 232 4.0 10.0 0.00 0.00 0.00 65 1012.2
20260509203922 74 165 4.0 10.0 0.00 0.00 0.00 64 1012.2
20260509203822 74 226 4.0 10.0 0.00 0.00 0.00 64 1012.3
20260509203721 74 213 4.0 10.0 0.00 0.00 0.00 64 1012.2
20260509203514 74 195 4.0 10.0 0.00 0.00 0.00 64 1012.3
20260509203413 74 214 4.0 10.0 0.00 0.00 0.00 64 1012.2
20260509203314 75 262 3.0 10.0 0.00 0.00 0.00 62 1012.2
20260509203214 75 284 3.0 10.0 0.00 0.00 0.00 62 1012.2
20260509203010 75 169 2.0 8.0 0.00 0.00 0.00 62 1012.4
20260509202909 75 216 2.0 8.0 0.00 0.00 0.00 62 1012.2
20260509202809 75 212 2.0 8.0 0.00 0.00 0.00 64 1012.4
20260509202709 75 208 3.0 8.0 0.00 0.00 0.00 65 1012.3
20260509202502 74 181 3.0 8.0 0.00 0.00 0.00 63 1012.3
20260509202402 74 219 3.0 9.0 0.00 0.00 0.00 65 1012.3
20260509202306 74 224 4.0 9.0 0.00 0.00 0.00 64 1012.2
20260509202201 74 160 4.0 10.0 0.00 0.00 0.00 64 1012.2
20260509201957 74 219 4.0 10.0 0.00 0.00 0.00 63 1012.3
20260509201854 74 191 4.0 10.0 0.00 0.00 0.00 63 1012.3
20260509201756 74 170 4.0 10.0 0.00 0.00 0.00 62 1012.2
20260509201654 74 164 4.0 10.0 0.00 0.00 0.00 62 1012.3
20260509201451 75 200 4.0 10.0 0.00 0.00 0.00 61 1012.3
20260509201350 75 183 4.0 10.0 0.00 0.00 0.00 61 1012.3
20260509201249 75 247 3.0 10.0 0.00 0.00 0.00 61 1012.2
20260509201148 75 198 4.0 8.0 0.00 0.00 0.00 61 1012.3
20260509200946 76 199 4.0 8.0 0.00 0.00 0.00 60 1012.3
20260509200848 76 276 3.0 8.0 0.00 0.00 0.00 61 1012.3
20260509200745 76 279 3.0 8.0 0.00 0.00 0.00 63 1012.3
20260509200646 76 201 3.0 8.0 0.00 0.00 0.00 60 1012.3
20260509200440 76 164 3.0 8.0 0.00 0.00 0.00 59 1012.4
20260509200339 76 184 3.0 8.0 0.00 0.00 0.00 60 1012.4
20260509200240 76 287 3.0 10.0 0.00 0.00 0.00 61 1012.4
20260509200140 76 153 3.0 10.0 0.00 0.00 0.00 63 1012.4
20260509200038 76 221 3.0 10.0 0.00 0.00 0.00 61 1012.4
20260509195932 76 252 3.0 10.0 0.00 0.00 0.00 63 1012.4
20260509195831 75 89 3.0 10.0 0.00 0.00 0.00 64 1012.4
20260509195732 75 170 3.0 10.0 0.00 0.00 0.00 64 1012.4
20260509195632 75 202 4.0 10.0 0.00 0.00 0.00 62 1012.4
20260509195532 75 144 4.0 10.0 0.00 0.00 0.00 61 1012.4
20260509195425 75 228 3.0 10.0 0.00 0.00 0.00 62 1012.4
20260509195324 75 282 3.0 10.0 0.00 0.00 0.00 62 1012.4
20260509195225 75 220 3.0 9.0 0.00 0.00 0.00 61 1012.4
20260509195126 75 220 3.0 9.0 0.00 0.00 0.00 61 1012.4
20260509195026 75 215 3.0 7.0 0.00 0.00 0.00 60 1012.5
20260509194922 75 210 2.0 7.0 0.00 0.00 0.00 59 1012.6
20260509194818 74 253 3.0 10.0 0.00 0.00 0.00 62 1012.6
20260509194719 74 266 3.0 10.0 0.00 0.00 0.00 62 1012.6
20260509194618 74 153 3.0 10.0 0.00 0.00 0.00 62 1012.6
20260509194521 74 269 3.0 10.0 0.00 0.00 0.00 61 1012.6
20260509194412 74 288 3.0 10.0 0.00 0.00 0.00 62 1012.7
20260509194314 74 216 3.0 10.0 0.00 0.00 0.00 61 1012.7
20260509194214 74 153 3.0 10.0 0.00 0.00 0.00 61 1012.6
20260509194114 74 145 4.0 10.0 0.00 0.00 0.00 61 1012.7
20260509194014 75 174 4.0 10.0 0.00 0.00 0.00 60 1012.7
20260509193908 75 169 4.0 10.0 0.00 0.00 0.00 60 1012.8
20260509193811 75 183 4.0 11.0 0.00 0.00 0.00 60 1012.8
20260509193713 75 200 4.0 11.0 0.00 0.00 0.00 60 1012.7
20260509193653 76 215 4.0 11.0 0.00 0.00 0.00 59 1012.7
20260509193508 76 212 4.0 11.0 0.00 0.00 0.00 60 1012.7
20260509193401 76 174 5.0 11.0 0.00 0.00 0.00 61 1012.7
20260509193301 75 193 5.0 11.0 0.00 0.00 0.00 63 1012.7
20260509193202 75 280 5.0 11.0 0.00 0.00 0.00 59 1012.7
20260509193106 75 203 5.0 11.0 0.00 0.00 0.00 59 1012.7
20260509193003 76 206 5.0 11.0 0.00 0.00 0.00 59 1012.7
20260509192859 76 217 4.0 11.0 0.00 0.00 0.00 60 1012.6
20260509192756 76 188 4.0 11.0 0.00 0.00 0.00 61 1012.6
20260509192656 76 219 4.0 10.0 0.00 0.00 0.00 62 1012.6
20260509192558 76 156 4.0 10.0 0.00 0.00 0.00 60 1012.7
20260509192455 76 214 4.0 10.0 0.00 0.00 0.00 59 1012.6
20260509192352 76 200 3.0 10.0 0.00 0.00 0.00 60 1012.6
20260509192250 75 172 3.0 10.0 0.00 0.00 0.00 60 1012.6
20260509192150 75 166 3.0 10.0 0.00 0.00 0.00 60 1012.7
20260509192048 75 234 4.0 10.0 0.00 0.00 0.00 60 1012.6
20260509191950 75 301 4.0 10.0 0.00 0.00 0.00 61 1012.6
20260509191846 75 243 4.0 10.0 0.00 0.00 0.00 60 1012.7
20260509191744 75 240 4.0 10.0 0.00 0.00 0.00 59 1012.7
20260509191644 75 212 4.0 10.0 0.00 0.00 0.00 59 1012.6
20260509191546 75 271 4.0 10.0 0.00 0.00 0.00 59 1012.7
20260509191444 75 166 4.0 10.0 0.00 0.00 0.00 61 1012.7
20260509191340 75 176 4.0 10.0 0.00 0.00 0.00 58 1012.7
20260509191238 75 289 4.0 10.0 0.00 0.00 0.00 60 1012.6
20260509191137 75 232 5.0 10.0 0.00 0.00 0.00 58 1012.7
20260509191038 75 192 4.0 10.0 0.00 0.00 0.00 61 1012.7
20260509190938 75 163 4.0 10.0 0.00 0.00 0.00 60 1012.7
20260509190832 75 191 4.0 10.0 0.00 0.00 0.00 60 1012.7
20260509190732 75 193 4.0 10.0 0.00 0.00 0.00 58 1012.6
20260509190656 76 268 3.0 10.0 0.00 0.00 0.00 58 1012.6
20260509190531 76 248 3.0 9.0 0.00 0.00 0.00 60 1012.6
20260509190431 76 150 2.0 9.0 0.00 0.00 0.00 63 1012.5
20260509190327 75 159 2.0 9.0 0.00 0.00 0.00 61 1012.6
20260509190226 75 168 2.0 9.0 0.00 0.00 0.00 62 1012.6
20260509190126 75 98 2.0 5.0 0.00 0.00 0.00 65 1012.5
20260509190026 74 277 2.0 6.0 0.00 0.00 0.00 64 1012.5
20260509185925 74 235 2.0 6.0 0.00 0.00 0.00 63 1012.5
20260509185821 74 138 3.0 6.0 0.00 0.00 0.00 65 1012.6
20260509185721 74 176 3.0 8.0 0.00 0.00 0.00 61 1012.6
20260509185620 74 186 3.0 8.0 0.00 0.00 0.00 61 1012.6
20260509185520 74 297 3.0 8.0 0.00 0.00 0.00 61 1012.6
20260509185425 74 347 3.0 8.0 0.00 0.00 0.00 62 1012.7
20260509185410 75 65 3.0 8.0 0.00 0.00 0.00 60 1012.7
20260509185220 75 274 3.0 8.0 0.00 0.00 0.00 60 1012.7
20260509185151 75 181 3.0 8.0 0.00 0.00 0.00 60 1012.7
20260509185017 75 167 3.0 8.0 0.00 0.00 0.00 61 1012.7
20260509184918 75 221 2.0 8.0 0.00 0.00 0.00 60 1012.7
20260509184818 75 226 2.0 8.0 0.00 0.00 0.00 60 1012.7
20260509184718 75 247 2.0 6.0 0.00 0.00 0.00 60 1012.6
20260509184617 76 226 2.0 7.0 0.00 0.00 0.00 61 1012.8
20260509184518 75 211 2.0 7.0 0.00 0.00 0.00 61 1012.7
20260509184418 75 175 2.0 7.0 0.00 0.00 0.00 60 1012.7
20260509184318 75 49 2.0 7.0 0.00 0.00 0.00 64 1012.8
20260509184214 75 255 2.0 7.0 0.00 0.00 0.00 63 1012.7
20260509184150 75 261 2.0 7.0 0.00 0.00 0.00 63 1012.6
20260509184014 75 172 2.0 8.0 0.00 0.00 0.00 63 1012.8
20260509183914 74 331 3.0 8.0 0.00 0.00 0.00 64 1012.8
20260509183814 74 3 3.0 8.0 0.00 0.00 0.00 63 1012.8
20260509183716 74 33 3.0 8.0 0.00 0.00 0.00 62 1012.8
20260509183610 74 283 3.0 8.0 0.00 0.00 0.00 65 1012.8
20260509183509 74 195 3.0 8.0 0.00 0.00 0.00 65 1012.8
20260509183410 74 154 3.0 8.0 0.00 0.00 0.00 64 1012.8
20260509183310 74 187 3.0 8.0 0.00 0.00 0.00 63 1012.9
20260509183210 74 142 3.0 8.0 0.00 0.00 0.00 66 1012.9
20260509183103 74 277 3.0 8.0 0.00 0.00 0.00 64 1012.9
20260509183002 74 250 3.0 8.0 0.00 0.00 0.00 63 1013.0
20260509182904 74 236 3.0 8.0 0.00 0.00 0.00 63 1013.0
20260509182804 74 233 3.0 8.0 0.00 0.00 0.00 64 1013.0
20260509182704 74 200 3.0 8.0 0.00 0.00 0.00 63 1013.0
20260509182600 74 292 3.0 8.0 0.00 0.00 0.00 63 1013.0
20260509182500 74 286 3.0 8.0 0.00 0.00 0.00 63 1013.1
20260509182400 74 293 2.0 8.0 0.00 0.00 0.00 62 1013.2
20260509182301 74 213 2.0 8.0 0.00 0.00 0.00 63 1013.0
20260509182202 74 256 2.0 8.0 0.00 0.00 0.00 62 1013.1
20260509182048 74 169 2.0 8.0 0.00 0.00 0.00 64 1013.1
20260509181947 74 189 2.0 8.0 0.00 0.00 0.00 62 1013.1
20260509181848 74 227 1.0 6.0 0.00 0.00 0.00 63 1013.1
20260509181747 74 263 2.0 6.0 0.00 0.00 0.00 64 1013.1
20260509181649 74 259 2.0 7.0 0.00 0.00 0.00 65 1013.1
20260509181630 74 74 2.0 7.0 0.00 0.00 0.00 66 1013.1
20260509181440 74 214 2.0 7.0 0.00 0.00 0.00 68 1013.1
20260509181341 73 295 2.0 7.0 0.00 0.00 0.00 66 1013.1
20260509181241 73 29 2.0 7.0 0.00 0.00 0.00 66 1013.1
20260509181141 73 224 3.0 7.0 0.00 0.00 0.00 64 1013.2
20260509181041 73 230 4.0 12.0 0.00 0.00 0.00 65 1013.2
20260509180938 73 240 4.0 12.0 0.00 0.00 0.00 66 1013.3
20260509180839 73 262 4.0 12.0 0.00 0.00 0.00 65 1013.3
20260509180738 73 295 4.0 12.0 0.00 0.00 0.00 66 1013.2
20260509180635 73 274 4.0 12.0 0.00 0.00 0.00 69 1013.3
20260509180529 72 302 4.0 12.0 0.00 0.00 0.00 67 1013.3
20260509180429 72 207 4.0 12.0 0.00 0.00 0.00 67 1013.3
20260509180330 72 152 4.0 12.0 0.00 0.00 0.00 66 1013.3
20260509180230 72 224 4.0 12.0 0.00 0.00 0.00 65 1013.4
20260509180130 72 229 3.0 12.0 0.00 0.00 0.00 65 1013.4
20260509180022 72 243 3.0 12.0 0.00 0.00 0.00 68 1013.4
20260509175923 72 185 3.0 12.0 0.00 0.00 0.00 65 1013.5
20260509175824 71 243 3.0 12.0 0.00 0.00 0.00 65 1013.5
20260509175724 71 214 2.0 12.0 0.00 0.00 0.00 64 1013.7
20260509175624 72 200 2.0 8.0 0.00 0.00 0.00 64 1013.7
20260509175521 72 257 2.0 7.0 0.00 0.00 0.00 66 1013.7
20260509175421 72 139 1.0 7.0 0.00 0.00 0.00 66 1013.7
20260509175321 72 293 1.0 7.0 0.00 0.00 0.00 66 1013.7
20260509175220 72 216 2.0 7.0 0.00 0.00 0.00 66 1013.7
20260509175120 72 73 2.0 7.0 0.00 0.00 0.00 66 1013.7
20260509174922 72 257 2.0 7.0 0.00 0.00 0.00 64 1013.7
20260509174822 72 71 2.0 7.0 0.00 0.00 0.00 65 1013.8
20260509174721 72 1 2.0 7.0 0.00 0.00 0.00 64 1013.7
20260509174620 72 262 2.0 7.0 0.00 0.00 0.00 64 1013.8
20260509174522 72 211 3.0 7.0 0.00 0.00 0.00 64 1013.7
20260509174421 72 141 3.0 7.0 0.00 0.00 0.00 63 1013.7
20260509174322 72 217 3.0 9.0 0.00 0.00 0.00 63 1013.8
20260509174219 73 220 3.0 9.0 0.00 0.00 0.00 63 1013.8
20260509174122 73 197 3.0 9.0 0.00 0.00 0.00 62 1013.8
20260509174020 73 186 4.0 9.0 0.00 0.00 0.00 63 1013.8
20260509173919 73 241 3.0 9.0 0.00 0.00 0.00 62 1013.7
20260509173816 73 266 3.0 9.0 0.00 0.00 0.00 65 1013.8
20260509173715 73 282 3.0 9.0 0.00 0.00 0.00 66 1013.7
20260509173615 73 349 3.0 9.0 0.00 0.00 0.00 64 1013.7
20260509173516 73 171 3.0 9.0 0.00 0.00 0.00 63 1013.7
20260509173413 73 191 2.0 9.0 0.00 0.00 0.00 63 1013.7
20260509173314 73 191 2.0 8.0 0.00 0.00 0.00 65 1013.8
20260509173212 73 250 2.0 8.0 0.00 0.00 0.00 66 1013.8
20260509173135 73 176 2.0 6.0 0.00 0.00 0.00 65 1013.8
20260509173012 73 160 2.0 5.0 0.00 0.00 0.00 65 1013.9
20260509172912 72 250 2.0 5.0 0.00 0.00 0.00 68 1013.8
20260509172812 72 271 3.0 7.0 0.00 0.00 0.00 67 1013.8
20260509172718 72 283 3.0 9.0 0.00 0.00 0.00 65 1013.9
20260509172608 72 275 3.0 9.0 0.00 0.00 0.00 65 1013.9
20260509172509 72 194 3.0 9.0 0.00 0.00 0.00 65 1013.9
20260509172408 72 135 3.0 9.0 0.00 0.00 0.00 64 1013.9
20260509172310 72 224 3.0 9.0 0.00 0.00 0.00 63 1013.9
20260509172208 72 125 3.0 9.0 0.00 0.00 0.00 63 1013.8
20260509172108 73 97 3.0 9.0 0.00 0.00 0.00 65 1013.8
20260509172008 72 345 3.0 9.0 0.00 0.00 0.00 67 1013.8
20260509171910 72 194 3.0 9.0 0.00 0.00 0.00 65 1013.8
20260509171809 72 311 3.0 9.0 0.00 0.00 0.00 65 1013.9
20260509171708 72 299 2.0 7.0 0.00 0.00 0.00 64 1013.7
20260509171609 72 279 2.0 7.0 0.00 0.00 0.00 65 1013.8
20260509171508 72 174 3.0 7.0 0.00 0.00 0.00 64 1013.8
20260509171408 72 212 3.0 7.0 0.00 0.00 0.00 67 1013.9
20260509171309 72 183 3.0 7.0 0.00 0.00 0.00 66 1013.9
20260509171209 72 258 3.0 7.0 0.00 0.00 0.00 66 1013.8
20260509171110 72 259 3.0 8.0 0.00 0.00 0.00 67 1013.8
20260509171008 72 231 3.0 8.0 0.00 0.00 0.00 66 1013.8
20260509170909 72 236 3.0 8.0 0.00 0.00 0.00 65 1013.9
20260509170810 72 1 3.0 8.0 0.00 0.00 0.00 65 1014.0
20260509170704 72 15 3.0 8.0 0.00 0.00 0.00 64 1014.0
20260509170606 72 245 3.0 8.0 0.00 0.00 0.00 67 1014.0
20260509170506 71 236 3.0 8.0 0.00 0.00 0.00 65 1014.0
20260509170405 71 290 3.0 8.0 0.00 0.00 0.00 68 1014.0
20260509170304 71 255 3.0 9.0 0.00 0.00 0.00 67 1014.0
20260509170205 71 224 4.0 11.0 0.00 0.00 0.00 68 1013.9
20260509170105 71 231 4.0 11.0 0.00 0.00 0.00 66 1014.1
20260509170004 71 266 4.0 11.0 0.00 0.00 0.00 69 1014.1
20260509165905 71 254 4.0 11.0 0.00 0.00 0.00 68 1014.0
20260509165805 71 207 3.0 11.0 0.00 0.00 0.00 68 1014.0
20260509165706 71 206 3.0 11.0 0.00 0.00 0.00 67 1014.2
20260509165604 71 295 3.0 11.0 0.00 0.00 0.00 67 1014.1
20260509165505 71 276 3.0 11.0 0.00 0.00 0.00 67 1014.1
20260509165406 71 202 3.0 11.0 0.00 0.00 0.00 68 1014.1
20260509165307 71 188 3.0 11.0 0.00 0.00 0.00 67 1014.1
20260509165205 70 211 2.0 6.0 0.00 0.00 0.00 70 1014.1
20260509165104 70 174 3.0 9.0 0.00 0.00 0.00 69 1014.2
20260509165005 70 65 3.0 9.0 0.00 0.00 0.00 68 1014.2
20260509164906 70 296 3.0 9.0 0.00 0.00 0.00 68 1014.2
20260509164801 70 232 4.0 9.0 0.00 0.00 0.00 69 1014.3
20260509164701 69 272 4.0 12.0 0.00 0.00 0.00 70 1014.5
20260509164600 69 196 4.0 12.0 0.00 0.00 0.00 71 1014.4
20260509164502 69 134 4.0 12.0 0.00 0.00 0.00 69 1014.4
20260509164406 70 267 4.0 12.0 0.00 0.00 0.00 69 1014.4
20260509164348 70 203 5.0 12.0 0.00 0.00 0.00 69 1014.5
20260509164200 70 268 5.0 12.0 0.00 0.00 0.00 68 1014.5
20260509164125 70 290 5.0 12.0 0.00 0.00 0.00 69 1014.5
20260509164001 70 231 5.0 12.0 0.00 0.00 0.00 69 1014.5
20260509163900 70 227 5.0 12.0 0.00 0.00 0.00 70 1014.6
20260509163802 70 271 5.0 12.0 0.00 0.00 0.00 69 1014.6
20260509163700 70 218 5.0 13.0 0.00 0.00 0.00 69 1014.5
20260509163602 70 220 5.0 13.0 0.00 0.00 0.00 71 1014.6
20260509163500 70 134 6.0 13.0 0.00 0.00 0.00 71 1014.6
20260509163400 69 158 5.0 13.0 0.00 0.00 0.00 72 1014.5
20260509163200 69 205 5.0 13.0 0.00 0.00 0.00 71 1014.5
20260509163126 69 161 5.0 13.0 0.00 0.00 0.00 70 1014.5
20260509163002 70 155 5.0 13.0 0.00 0.00 0.00 70 1014.5
20260509162856 70 210 5.0 13.0 0.00 0.00 0.00 70 1014.5
20260509162756 70 269 5.0 13.0 0.00 0.00 0.00 70 1014.5
20260509162657 70 213 5.0 13.0 0.00 0.00 0.00 69 1014.6
20260509162556 70 191 4.0 13.0 0.00 0.00 0.00 69 1014.6
20260509162457 70 285 4.0 13.0 0.00 0.00 0.00 71 1014.5
20260509162356 70 196 3.0 10.0 0.00 0.00 0.00 72 1014.6
20260509162258 69 253 3.0 10.0 0.00 0.00 0.00 71 1014.6
20260509162158 69 172 3.0 10.0 0.00 0.00 0.00 72 1014.5
20260509162056 69 297 3.0 10.0 0.00 0.00 0.00 72 1014.6
20260509161956 69 221 4.0 10.0 0.00 0.00 0.00 72 1014.7
20260509161856 69 261 3.0 10.0 0.00 0.00 0.00 71 1014.6
20260509161756 69 218 3.0 8.0 0.00 0.00 0.00 72 1014.7
20260509161657 69 193 3.0 6.0 0.00 0.00 0.00 73 1014.7
20260509161557 69 235 3.0 8.0 0.00 0.00 0.00 72 1014.6
20260509161456 69 188 3.0 8.0 0.00 0.00 0.00 73 1014.7
20260509161356 69 221 3.0 8.0 0.00 0.00 0.00 73 1014.6
20260509161256 69 226 4.0 8.0 0.00 0.00 0.00 73 1014.7
20260509161157 69 179 4.0 8.0 0.00 0.00 0.00 74 1014.6
20260509161058 69 191 4.0 8.0 0.00 0.00 0.00 74 1014.6
20260509160953 69 185 4.0 11.0 0.00 0.00 0.00 74 1014.7
20260509160853 69 243 4.0 11.0 0.00 0.00 0.00 74 1014.7
20260509160752 69 173 4.0 11.0 0.00 0.00 0.00 73 1014.9
20260509160652 69 274 4.0 11.0 0.00 0.00 0.00 73 1014.8
20260509160552 69 330 4.0 11.0 0.00 0.00 0.00 72 1014.7
20260509160454 69 241 4.0 11.0 0.00 0.00 0.00 73 1014.7
20260509160352 69 210 5.0 11.0 0.00 0.00 0.00 73 1014.9
20260509160253 69 257 5.0 11.0 0.00 0.00 0.00 72 1014.7
20260509160153 69 213 5.0 11.0 0.00 0.00 0.00 72 1014.8
20260509160052 69 221 4.0 11.0 0.00 0.00 0.00 72 1014.7
20260509155953 69 223 4.0 10.0 0.00 0.00 0.00 74 1014.7
20260509155852 69 187 4.0 8.0 0.00 0.00 0.00 76 1014.7
20260509155752 69 202 3.0 8.0 0.00 0.00 0.00 73 1014.6
20260509155654 69 271 3.0 8.0 0.00 0.00 0.00 74 1014.7
20260509155552 69 189 3.0 8.0 0.00 0.00 0.00 73 1014.8
20260509155453 69 181 3.0 8.0 0.00 0.00 0.00 74 1014.7
20260509155353 69 167 3.0 7.0 0.00 0.00 0.00 74 1014.8
20260509155253 69 239 3.0 7.0 0.00 0.00 0.00 74 1014.7
20260509155153 69 217 3.0 7.0 0.00 0.00 0.00 74 1014.7
20260509155046 68 259 3.0 6.0 0.00 0.00 0.00 75 1014.8
20260509154947 68 298 3.0 8.0 0.00 0.00 0.00 76 1014.7
20260509154848 68 249 3.0 8.0 0.00 0.00 0.00 75 1014.7
20260509154748 68 215 3.0 8.0 0.00 0.00 0.00 73 1014.7
20260509154645 68 163 3.0 8.0 0.00 0.00 0.00 75 1014.7
20260509154544 68 139 3.0 8.0 0.00 0.00 0.00 75 1014.7
20260509154440 68 229 3.0 8.0 0.00 0.00 0.00 74 1014.7
20260509154339 68 160 3.0 8.0 0.00 0.00 0.00 74 1014.7
20260509154238 68 273 3.0 8.0 0.00 0.00 0.00 75 1014.7
20260509154139 68 176 3.0 8.0 0.00 0.00 0.00 74 1014.6
20260509154032 68 152 3.0 7.0 0.00 0.00 0.00 74 1014.8
20260509153932 68 169 4.0 8.0 0.00 0.00 0.00 73 1014.7
20260509153832 68 226 4.0 9.0 0.00 0.00 0.00 73 1014.7
20260509153734 69 160 4.0 9.0 0.00 0.00 0.00 73 1014.6
20260509153638 69 158 4.0 9.0 0.00 0.00 0.00 74 1014.6
20260509153616 69 139 4.0 11.0 0.00 0.00 0.00 74 1014.6
20260509153425 69 167 4.0 11.0 0.00 0.00 0.00 73 1014.7